[{"header": {"dx": 0.06612293990616946, "dy": 0.0552356325346848, "nx": 98, "ny": 59, "la1": 35.046912555036876, "la2": 31.78801023549047, "lo1": -121.43107172385933, "lo2": -114.95102361305473, "refTime": "2026040722", "parameterCategory": 1, "parameterNumber": 2}, "data": [9.17, 9.17, 9.77, 9.77, 9.77, 10.3, 10.59, 10.23, 10.23, 10.7, 10.41, 9.63, 10.96, 10.18, 9.68, 9.35, 9.83, 9.39, 7.94, 1.73, -1.4, -1.4, -2.8, -2.8, -3.91, -3.91, -3.91, -3.91, -3.91, -3.22, -2.99, -1.99, -1.05, 0.0, 1.05, 2.99, 3.47, 3.72, 4.29, 5.49, 5.82, 6.55, 8.18, 8.73, 10.24, 10.01, 12.05, 12.76, 11.03, 10.04, 10.0, 9.75, 9.68, 9.39, 8.94, 7.54, 5.51, 4.8, 4.8, 4.46, 4.46, 3.16, 1.8, 2.84, 3.48, 4.84, 5.58, 5.37, 6.01, 4.4, -0.0, -0.0, -0.0, -0.0, 8.05, 8.49, 0.0, 0.0, 0.0, 0.0, 0.0, 1.41, 2.23, 2.48, 3.35, 3.47, 4.92, 5.81, 5.36, 4.74, -0.0, -0.0, 1.1, 1.03, 1.23, 1.14, 1.05, -0.0, 9.17, 9.17, 9.48, 9.77, 10.09, 10.65, 10.3, 10.59, 10.51, 10.51, 9.86, 10.66, 10.04, 9.74, 10.18, 9.54, 8.9, 10.2, 9.29, 5.58, 0.0, -1.49, -1.49, -3.4, -3.91, -3.91, -3.91, -3.72, -3.72, -3.72, -3.0, -1.98, -1.03, 0.0, 1.03, 2.8, 3.55, 3.55, 3.77, 4.42, 5.69, 6.95, 8.49, 8.93, 9.89, 11.2, 13.05, 11.07, 9.0, 9.05, 9.03, 9.24, 9.49, 8.82, 8.94, 8.49, 7.1, 5.7, 5.64, 5.64, 5.51, 4.66, 4.0, 4.47, 4.92, 5.81, 6.36, 7.21, 7.6, 6.95, -0.0, 9.39, 8.94, 8.49, 8.05, 6.01, 0.0, 0.0, 0.0, 0.0, 0.0, 1.41, 2.23, 2.48, 3.35, 3.47, 4.92, 5.81, 5.36, 4.74, -0.0, -0.0, 1.1, 1.03, 1.23, 1.14, 1.05, -0.0, 9.17, 9.17, 9.48, 9.77, 9.77, 10.36, 10.65, 10.59, 10.51, 10.15, 9.3, 7.73, 10.04, 10.0, 9.08, 9.49, 9.49, 9.49, 9.92, 9.04, 3.0, 0.0, -1.49, -2.99, -4.83, -3.72, -3.72, -3.72, -2.82, -2.99, -2.67, -1.84, -1.96, 0.0, 1.03, 2.82, 2.82, 3.6, 3.45, 4.34, 5.64, 7.44, 8.95, 10.22, 11.35, 12.08, 10.43, 7.68, 7.76, 7.76, 7.81, 8.4, 8.56, 8.77, 8.46, 8.49, 7.6, 6.26, 6.26, 6.07, 5.64, 5.36, 4.47, 4.92, 5.36, 6.26, 7.15, 8.05, 8.94, 9.83, 10.28, 10.28, 0.0, 9.39, 8.94, 7.6, 4.4, 0.0, 0.0, 0.0, 0.0, 1.55, 1.27, 2.23, 2.53, 2.84, 4.15, 5.73, 6.07, 1.58, -0.0, -0.0, 1.03, 1.03, 2.16, 2.4, 2.2, -0.0, 8.87, 9.17, 9.48, 9.77, 9.77, 10.36, 10.65, 10.3, 10.59, 10.15, 9.02, 7.81, 9.4, 8.88, 9.36, 9.36, 9.36, 9.77, 9.9, 9.75, 7.2, 1.84, -1.49, -3.35, -3.99, -4.37, -3.55, -2.64, -1.96, -1.84, -1.75, -1.75, -1.84, -1.4, 0.0, 1.58, 2.83, 3.87, 4.25, 5.2, 7.49, 9.78, 10.31, 10.49, 9.81, 9.34, 7.35, 7.15, 7.2, 7.2, 7.07, 7.82, 7.76, 8.29, 8.44, 8.0, 7.6, 6.71, 6.71, 6.71, 6.26, 5.36, 4.92, 5.36, 5.94, 6.36, 7.21, 7.81, 8.67, 9.54, 8.93, 4.6, 0.0, 0.0, 6.32, 9.39, 8.8, 0.0, -3.6, 0.0, 0.0, 3.16, 2.23, 2.23, 3.16, 3.93, 4.98, 5.36, 3.4, -0.0, -0.0, -0.0, 0.96, 2.32, 2.99, 4.29, 3.48, -0.0, 8.87, 9.17, 9.48, 9.77, 9.77, 10.09, 10.65, 10.3, 10.59, 10.23, 9.02, 7.23, 8.38, 8.82, 9.36, 9.42, 9.27, 10.0, 10.0, 10.0, 9.6, 4.37, 0.0, -1.58, -2.83, -3.15, -3.15, -3.15, -1.4, -0.84, -0.85, -0.85, -1.84, -2.02, 0.0, 0.0, 1.52, 4.24, 5.63, 6.63, 8.55, 8.93, 8.45, 8.42, 7.78, 7.68, 7.81, 7.76, 8.06, 7.63, 7.6, 7.2, 7.53, 7.63, 7.85, 8.0, 7.55, 7.15, 6.71, 7.15, 6.26, 5.36, 5.36, 6.26, 6.71, 6.94, 6.94, 7.37, 8.24, 7.87, 6.17, 2.28, 0.0, 0.0, 0.0, 3.6, 8.4, 0.0, -3.4, -2.2, 1.8, 3.48, 3.16, 2.84, 3.72, 4.77, 5.36, 5.06, 1.54, -0.0, -0.0, 0.96, 1.03, 3.22, 4.11, 4.98, 4.09, 1.27, 8.87, 9.17, 9.48, 9.77, 9.77, 10.09, 10.36, 10.3, 10.59, 10.23, 8.78, 6.92, 8.03, 8.82, 9.77, 9.36, 9.42, 9.81, 9.67, 9.66, 9.4, 5.89, 0.0, -1.47, -1.4, -1.4, -1.47, -1.47, -1.47, 0.0, 0.0, 0.85, 0.85, 0.0, 0.0, 0.0, 1.09, 4.43, 5.81, 5.65, 5.49, 6.0, 6.57, 7.9, 8.73, 8.42, 8.43, 8.72, 8.56, 8.77, 8.29, 7.63, 7.53, 7.37, 7.37, 7.54, 7.54, 7.15, 7.15, 7.15, 6.26, 5.36, 5.81, 6.71, 7.15, 7.6, 6.94, 6.07, 7.01, 7.89, 6.32, 1.58, 0.0, 0.0, -1.63, 0.0, 0.0, 0.0, 0.0, -1.55, 1.55, 4.11, 5.2, 5.81, 5.94, 5.37, 4.37, 2.69, 1.14, -0.0, -0.0, 1.03, 2.8, 3.91, 5.37, 5.51, 4.77, -0.0, 8.87, 9.17, 9.48, 9.48, 9.77, 9.77, 10.09, 10.3, 10.3, 9.66, 7.86, 6.32, 7.68, 9.03, 10.62, 9.36, 10.0, 10.4, 10.04, 9.57, 9.92, 9.0, 3.6, -0.99, -1.39, 0.0, -1.76, -1.52, -1.52, -0.99, 0.0, 1.75, 4.56, 4.98, 2.33, 0.0, 1.29, 3.68, 2.91, 2.63, 3.53, 3.82, 5.08, 7.28, 8.85, 8.82, 8.43, 8.8, 8.72, 9.54, 9.03, 7.85, 7.85, 7.37, 6.94, 7.1, 7.1, 6.71, 7.15, 7.6, 6.26, 5.36, 5.81, 6.26, 6.26, 7.15, 7.15, 6.14, 5.7, 7.15, 8.05, 0.0, -3.0, -1.7, -1.7, -1.7, 0.0, 0.0, 0.0, -4.11, 0.0, 7.15, 3.2, 3.4, 1.67, 2.58, 2.97, 2.12, 1.03, -0.0, -0.0, 1.7, 3.91, 4.89, 6.36, 6.17, 4.77, 1.27, 8.87, 8.87, 9.17, 9.48, 9.77, 9.77, 9.77, 10.06, 10.06, 9.08, 6.97, 5.63, 7.27, 9.16, 10.55, 9.27, 10.23, 11.2, 11.04, 10.66, 10.66, 11.04, 10.0, 5.69, 0.0, 0.0, 0.0, -1.76, -1.84, -1.58, 0.0, 1.44, 4.24, 5.77, 4.54, 1.55, 0.0, 7.59, 0.0, 0.0, 1.16, 2.42, 2.93, 4.23, 5.21, 5.86, 6.73, 7.81, 7.82, 9.04, 7.63, 7.63, 7.37, 6.88, 6.64, 6.2, 6.64, 7.15, 7.6, 7.6, 6.71, 5.81, 5.81, 5.36, 5.26, 6.14, 7.15, 6.71, 6.26, 6.0, 5.69, -0.0, -3.8, -5.06, -3.16, -3.58, 0.0, 0.0, -2.2, -5.51, -5.36, -3.2, -0.0, -0.0, -0.0, -0.0, 1.25, 0.96, 0.96, -0.0, 0.88, 2.53, 4.11, 5.6, 6.45, 6.17, 4.98, 2.2, 8.87, 8.87, 9.17, 9.48, 9.48, 9.77, 9.77, 9.77, 10.06, 8.82, 7.28, 5.56, 7.19, 7.36, 8.07, 8.97, 9.69, 10.66, 10.66, 10.41, 10.01, 11.33, 11.77, 11.68, 8.17, 5.95, 3.48, 0.0, -1.84, 0.0, 0.0, 1.48, 5.11, 7.26, 7.9, 5.2, -7.59, -1.63, -2.2, -2.26, 0.0, 1.33, 2.58, 2.69, 4.14, 3.72, 5.69, 7.67, 7.53, 7.12, 8.48, 7.37, 7.37, 6.88, 5.94, 6.61, 7.06, 7.5, 7.45, 7.6, 7.15, 6.26, 5.81, 4.92, 4.92, 5.36, 7.6, 7.45, 6.51, 6.0, 5.69, -0.0, -0.0, -2.17, -0.0, -0.0, 5.81, 0.0, -5.6, -4.77, -4.47, -5.51, -2.8, -2.12, -0.0, -0.0, 1.63, 1.41, -0.0, 0.96, 2.0, 3.16, 4.22, 5.6, 5.94, 5.6, 4.11, 2.8, 8.56, 8.87, 8.87, 9.48, 9.48, 9.77, 9.77, 9.77, 9.72, 8.53, 7.61, 6.96, 6.97, 6.33, 7.44, 7.19, 7.89, 8.45, 8.51, 8.24, 7.24, 8.22, 10.24, 10.41, 8.94, 7.47, 6.4, 6.26, 4.46, 1.76, 0.0, 1.95, 4.92, 5.94, 6.0, 6.7, -0.0, -0.0, -0.0, -0.0, 3.58, 2.23, 4.11, 4.98, 5.51, 6.17, 6.71, 7.15, 7.6, 8.05, 8.05, 8.0, 7.85, 7.37, 6.0, 6.0, 6.13, 6.52, 7.47, 7.47, 7.06, 6.0, 5.94, 4.92, 4.92, 5.81, 7.6, 7.6, 7.15, 6.94, 7.6, -0.0, -0.0, -0.0, -0.0, 6.32, 8.94, 8.49, -7.6, -6.71, -3.82, -3.82, -4.92, -5.81, -4.11, -0.0, -0.0, -0.0, 1.7, 1.41, 2.23, 3.22, 4.29, 4.89, 4.89, 4.89, 3.72, 3.0, 8.24, 8.87, 8.87, 9.17, 9.48, 9.48, 9.77, 9.77, 9.72, 8.85, 8.54, 7.96, 8.87, 8.56, 9.36, 8.3, 7.03, 4.88, 4.69, 4.73, 6.18, 5.37, 4.92, 4.8, 2.8, 3.22, 3.79, 3.79, 5.09, 4.92, 3.58, -0.0, -0.0, 2.16, 3.22, 3.47, 3.0, 2.82, 3.97, 5.37, 5.84, 6.57, 6.88, 7.94, 7.94, 6.88, 7.37, 7.42, 7.85, 8.0, 8.49, 8.45, 7.85, 6.8, 5.49, 5.15, 5.37, 6.01, 6.01, 6.01, 7.2, 6.94, 5.51, 4.66, 4.4, 5.4, 7.45, 7.89, 7.37, 8.05, 9.39, 10.28, 10.28, 0.0, 0.0, 0.0, 9.39, -0.0, -6.64, -6.32, -6.26, -2.84, -2.23, -3.48, -3.79, 0.0, 6.71, 6.71, 5.81, 3.48, 3.16, 2.48, 2.95, 4.11, 4.89, 4.19, 3.72, 3.97, 7.96, 8.87, 8.87, 9.17, 9.48, 9.48, 9.48, 9.77, 9.17, 9.46, 8.87, 8.87, 9.21, 10.36, 11.07, 10.68, 8.43, 6.44, 5.78, 4.59, 2.8, -2.4, -2.0, -1.84, -2.26, -3.0, -5.6, -2.21, -0.0, -0.0, 1.98, 2.12, 2.32, 2.95, 2.95, 3.49, 4.74, 5.69, 6.11, 7.2, 6.82, 7.2, 7.12, 7.5, 7.01, 5.73, 7.01, 7.15, 7.6, 7.94, 6.94, 7.12, 6.8, 6.55, 5.24, 4.68, 3.77, 4.96, 4.83, 6.64, 8.0, 4.22, 4.65, 5.26, 5.7, 5.6, 6.52, 6.44, 6.08, 6.44, 6.32, 2.97, 2.83, 2.83, 0.0, 0.0, 0.0, -9.83, -4.2, -0.0, 5.37, 5.81, -2.2, -2.48, -2.0, -1.7, 0.0, 0.0, 6.71, 5.81, -0.0, 1.8, 2.23, 4.29, 5.24, 3.91, 3.72, 4.58, 7.96, 8.58, 8.58, 8.87, 9.17, 9.48, 9.48, 9.48, 9.48, 9.48, 9.48, 9.19, 9.5, 10.43, 12.16, 13.23, 12.91, 11.56, 9.91, 8.79, 6.24, 3.13, -3.79, -5.2, -5.34, -4.73, -4.3, -3.82, -3.07, -1.9, -0.0, 3.22, 3.91, 4.11, 3.63, 4.74, 4.74, 5.84, 6.18, 7.2, 7.53, 6.94, 6.2, 5.36, 5.36, 4.4, 4.84, 6.51, 8.05, 7.89, 6.57, 6.6, 7.37, 8.06, 7.81, 7.44, 5.37, 1.95, -1.58, -6.01, -0.0, 1.84, 3.77, 4.74, 5.94, 6.64, 5.82, 4.74, 3.47, 3.0, 1.4, 1.49, 1.49, 0.0, -2.69, -6.64, -8.4, -8.0, -8.94, 8.05, 6.71, 7.15, 7.15, 6.26, -2.98, -3.47, -4.22, -5.06, -4.74, 0.0, 4.92, 4.02, 4.02, 5.09, 5.36, 4.74, 5.24, 4.74, 7.96, 8.24, 8.58, 8.58, 9.17, 9.17, 9.17, 9.17, 9.48, 9.48, 9.8, 9.5, 9.8, 10.43, 11.58, 12.93, 13.99, 13.81, 12.83, 12.21, 10.96, 7.43, 3.9, 4.02, -3.2, -3.39, -3.04, -3.04, -2.4, -2.15, -0.54, 2.4, 5.06, 4.89, 4.74, 4.74, 5.15, 6.18, 6.99, 7.37, 7.54, 6.64, 6.71, 6.07, 4.92, -0.0, 0.96, 5.06, 6.94, 8.05, 8.94, 8.94, 7.2, 2.26, 3.47, 3.79, 6.71, 3.0, -6.4, -3.91, -0.8, 1.47, 2.69, 4.14, 4.74, 6.36, 6.2, 5.21, 3.2, 1.03, 0.0, 0.0, -1.05, -4.11, -6.26, -5.6, -6.26, -6.0, -4.74, 0.0, 3.0, 5.06, 7.6, -0.0, 5.81, -2.8, -4.74, -5.21, -4.11, -2.8, 0.0, 0.0, 4.47, 5.36, 5.94, 6.0, 5.37, 5.75, 7.96, 8.24, 8.58, 8.58, 8.87, 9.17, 9.17, 9.48, 9.48, 9.8, 9.8, 9.8, 9.8, 10.4, 11.33, 12.45, 13.75, 13.99, 14.03, 13.99, 12.83, 10.81, 7.26, 4.87, 3.58, 2.68, 3.13, 2.68, 1.58, -0.0, -0.0, 0.71, 4.43, 5.72, 5.72, 5.37, 6.01, 6.6, 8.06, 7.15, 7.15, 7.6, 7.01, 6.71, 4.11, -0.0, -0.0, 3.0, 4.74, 6.4, 6.4, 5.58, 3.2, 1.73, 1.73, 4.74, 6.51, 4.47, 2.0, -0.0, -0.0, 1.58, 2.82, 4.56, 4.56, 5.06, 6.0, 6.71, 5.94, 0.0, -1.98, -3.22, -4.92, -2.2, -0.96, -0.0, -0.0, -0.0, -1.8, 0.0, 0.0, 0.0, 0.0, 6.26, 6.26, 5.81, -4.4, -4.09, -2.73, 0.0, -1.98, -4.11, -3.79, 5.36, 6.26, 6.51, 5.2, 5.2, 7.96, 7.96, 8.58, 8.87, 8.87, 8.87, 9.17, 9.48, 9.48, 9.8, 9.8, 10.09, 10.09, 10.69, 10.99, 11.52, 12.37, 13.36, 13.99, 14.03, 13.57, 12.51, 10.34, 7.98, 6.71, 6.23, 6.23, 5.78, 4.89, 3.87, 1.58, 1.58, 2.68, 6.64, 5.72, 4.29, 6.18, 7.12, 8.05, 7.6, 6.45, 6.64, 7.15, 6.0, 3.0, -0.0, -0.0, 3.2, 4.02, 4.74, 4.74, 5.06, 4.29, 4.74, 4.43, 5.6, 6.51, 7.01, 6.44, 5.31, 3.6, 4.14, 5.06, 5.72, 5.72, 5.72, 4.89, 6.9, 7.45, 3.72, -2.16, -5.7, -3.22, -0.89, -0.0, 1.84, 3.55, 3.22, 3.58, 0.0, -1.41, -1.41, -2.2, -2.8, 0.0, 5.81, 4.92, 4.02, 0.0, 0.0, -4.43, -4.11, 0.0, 5.6, 6.36, 6.26, 5.81, 5.81, 7.96, 7.96, 7.96, 8.87, 8.87, 8.87, 9.17, 9.48, 9.48, 9.8, 10.09, 10.09, 10.09, 10.36, 10.69, 11.23, 11.72, 12.54, 13.48, 14.03, 13.57, 12.51, 10.94, 9.37, 8.94, 9.37, 9.83, 8.94, 8.05, 6.26, 3.53, 2.0, 2.49, 5.6, 4.11, 4.29, 5.15, 6.64, 6.71, 6.71, 5.81, 4.8, 5.36, 3.72, 2.54, 1.32, 2.54, 3.91, 5.06, 5.72, 5.72, 5.72, 5.72, 5.72, 6.4, 7.45, 7.94, 8.06, 8.0, 7.21, 6.32, 6.28, 6.52, 6.64, 6.64, 5.94, 6.4, 6.4, 7.6, 5.58, -7.15, -3.0, -0.89, -0.0, 1.84, 2.83, 4.42, 4.29, 3.48, 0.0, -2.2, -3.22, -3.79, -4.84, -2.8, 0.0, 5.36, 4.47, 5.36, -6.71, -5.2, -3.22, 0.0, 5.06, 7.6, 5.6, 5.81, 5.81, 7.96, 7.96, 8.24, 8.56, 8.56, 8.87, 9.17, 9.48, 9.78, 10.11, 10.39, 10.39, 10.39, 10.65, 10.3, 10.59, 11.16, 12.16, 12.28, 12.83, 12.98, 12.64, 11.05, 9.83, 10.27, 10.28, 9.82, 8.92, 8.03, 5.78, 2.68, 2.24, 2.12, 2.15, 2.53, 3.79, 4.29, 6.07, 6.26, 6.07, 5.21, 3.2, 3.2, 3.91, 4.37, 3.8, 5.31, 5.69, 6.28, 6.9, 6.9, 6.52, 6.52, 6.52, 7.06, 7.63, 8.06, 8.06, 8.0, 7.44, 7.6, 7.6, 7.47, 7.01, 7.01, 6.26, 6.26, 7.15, 7.6, 7.15, 5.37, 1.84, 2.67, 2.67, 3.4, 4.42, 4.42, 3.97, 4.19, 3.72, 4.47, -4.66, -5.64, -4.74, -3.2, 0.0, 0.0, 5.81, 4.74, -0.0, 5.81, -4.43, -4.74, 7.6, 7.6, 6.71, 5.81, 5.81, 8.24, 8.24, 8.24, 8.24, 8.56, 8.56, 8.87, 9.48, 9.78, 9.77, 10.39, 10.39, 10.65, 10.3, 10.3, 12.57, 10.59, 10.87, 10.55, 10.91, 13.08, 13.41, 11.56, 12.09, 11.36, 11.84, 5.09, 8.06, 6.94, 1.86, 0.0, 1.79, 1.6, 1.86, 1.9, 2.5, 3.07, 4.02, 6.71, 7.94, 5.82, 5.84, 5.37, 5.37, 5.31, 6.01, 6.63, 7.6, 7.6, 7.6, 7.63, 7.47, 6.52, 6.52, 6.9, 7.63, 7.63, 7.6, 8.0, 8.0, 8.06, 8.06, 7.94, 6.65, 6.71, 6.26, 6.64, 7.1, 7.6, 8.48, 8.18, 7.41, 7.76, 7.15, 6.55, 5.49, 3.97, 2.82, 3.55, 3.72, 1.41, -1.41, -5.09, -6.71, -8.05, -8.49, -8.49, -7.6, -0.0, 4.74, 5.6, 6.71, -8.05, -3.4, -0.0, -0.0, -0.0, -0.0, 7.61, 8.24, 8.24, 8.24, 8.56, 8.56, 8.87, 9.46, 9.78, 9.77, 9.77, 10.3, 10.3, 10.3, 10.65, 10.3, 10.01, 9.08, 10.01, 11.26, 14.3, 12.62, 11.36, 12.27, 10.66, 9.42, 5.95, 1.49, 3.13, -2.24, -2.24, 1.79, 1.58, 1.86, 2.4, 2.91, 3.53, 4.47, 5.36, 6.23, 6.36, 6.1, 5.81, 5.2, 5.08, 7.6, 7.6, 8.06, 8.06, 7.63, 7.63, 6.52, 6.52, 6.9, 6.21, 6.8, 8.0, 6.94, 7.35, 8.6, 8.41, 8.05, 8.05, 7.6, 6.2, 6.2, 6.64, 7.1, 7.6, 8.29, 8.99, 9.75, 10.45, 10.14, 8.0, 5.37, 2.32, 1.98, 2.82, 3.55, 3.72, 2.16, -0.0, -3.48, -5.94, -6.71, -6.26, -5.81, -0.0, 4.43, 6.79, 5.37, -2.4, -1.84, -0.0, 2.26, 1.98, 1.98, 7.61, 7.95, 7.95, 7.95, 8.24, 8.56, 9.17, 9.46, 9.46, 9.77, 9.77, 10.3, 10.3, 10.3, 10.65, 11.23, 10.01, 8.49, 7.9, 10.51, 12.87, 10.41, 9.3, 8.73, 8.29, 7.08, 4.8, 2.63, 2.24, 2.24, 2.24, 2.0, 2.23, 2.8, 3.2, 3.87, 4.3, 4.44, 5.33, 6.23, 6.6, 6.47, 5.99, 5.57, 5.09, 7.63, 7.63, 8.06, 8.38, 7.94, 7.06, 6.08, 5.37, 5.37, 6.9, 6.21, 7.2, 7.35, 8.85, 8.49, 8.49, 8.05, 7.94, 7.5, 6.2, 6.2, 6.2, 6.71, 7.6, 8.0, 8.77, 10.14, 12.07, 11.44, 9.29, 6.8, -0.0, 1.03, 1.84, 2.82, 3.97, 3.72, 2.16, -0.0, -1.27, -3.16, -4.92, -4.92, -5.81, 6.71, 6.01, 2.54, -0.0, -0.0, -0.0, 2.8, 3.79, 3.79, 7.61, 7.61, 7.95, 7.95, 8.24, 8.85, 8.85, 9.46, 9.46, 9.72, 9.72, 10.06, 10.3, 10.3, 10.65, 10.99, 10.59, 9.37, 9.15, 10.06, 10.51, 9.1, 6.7, 5.65, 6.7, 7.31, 7.87, 7.13, 5.81, 4.02, 3.58, 3.51, 3.39, 3.6, 4.11, 4.6, 4.8, 5.24, 5.24, 5.7, 5.7, 5.7, 5.09, 5.09, 4.6, 5.02, 8.06, 7.94, 8.05, 7.01, 5.72, 4.56, 5.37, 6.08, 6.52, 6.52, 6.18, 7.76, 8.85, 8.49, 7.37, 7.12, 7.12, 6.94, 6.45, 6.45, 6.02, 6.64, 6.71, 7.94, 8.48, 9.46, 6.64, 2.4, -4.02, -4.11, -1.73, -0.96, -0.0, 0.89, 2.82, 3.33, 2.8, 1.98, 0.96, 1.05, -0.0, -3.22, -5.06, -8.49, -6.95, -0.0, -0.0, -0.0, 1.7, 2.98, 4.84, 4.84, 7.61, 7.61, 7.61, 7.95, 8.24, 8.85, 8.85, 8.85, 9.46, 9.46, 9.72, 10.06, 10.3, 10.65, 10.94, 11.29, 10.94, 10.01, 10.01, 10.59, 11.22, 10.21, 8.0, 5.81, 5.86, 6.1, 7.74, 8.33, 8.03, 7.15, 5.81, 4.89, 4.77, 4.6, 4.6, 5.09, 5.09, 5.7, 5.7, 5.7, 5.26, 5.24, 5.24, 4.8, 4.34, 4.6, 7.94, 7.6, 6.58, 5.06, 3.91, 3.91, 5.37, 6.08, 6.08, 6.08, 6.21, 6.8, 8.48, 7.15, 6.6, 6.82, 6.82, 6.6, 6.21, 6.0, 5.94, 6.17, 6.26, 6.64, 7.94, 7.06, -5.37, -5.21, -5.36, -3.47, -3.48, -2.76, -1.84, -0.0, 0.89, 1.96, 0.95, 1.96, 2.82, 2.64, 1.84, 1.01, -0.0, -5.95, -9.11, -7.2, -0.0, -0.0, 1.8, 3.48, 4.46, 4.46, 7.33, 7.33, 7.61, 7.61, 8.24, 8.54, 8.85, 8.85, 9.13, 9.13, 9.72, 10.06, 10.3, 10.65, 10.94, 10.94, 10.65, 10.59, 10.59, 11.07, 10.96, 10.91, 10.6, 9.11, 7.26, 6.3, 6.79, 7.4, 7.97, 7.6, 6.71, 5.79, 5.7, 5.24, 5.09, 5.09, 5.57, 5.7, 5.7, 5.7, 5.26, 5.24, 4.8, 4.77, 4.34, 4.44, 7.6, 7.5, 6.52, 5.69, 5.31, 5.69, 6.52, 6.52, 6.08, 5.72, 5.6, 6.16, 7.47, 7.15, 4.98, 4.58, 4.87, 4.58, 4.89, 4.82, 4.82, 6.51, 5.94, 6.64, 7.15, 5.81, -6.36, -4.98, -5.36, -5.51, -4.74, -4.02, -4.29, -1.84, -0.83, -0.0, -0.0, 1.63, 2.99, 2.82, 1.96, 1.96, 1.96, 1.05, -6.26, -5.36, -4.92, -0.0, 2.84, 3.48, 4.4, 4.4, 7.61, 7.61, 7.61, 7.9, 8.24, 8.24, 8.85, 8.85, 9.13, 9.13, 9.72, 10.06, 10.65, 10.65, 10.65, 10.3, 10.3, 10.3, 10.59, 11.07, 10.96, 11.08, 11.12, 10.66, 9.86, 8.64, 7.87, 7.4, 7.07, 7.15, 6.71, 6.68, 6.23, 5.7, 5.7, 5.7, 6.16, 6.16, 6.16, 5.7, 5.26, 5.24, 4.89, 4.88, 4.44, 4.92, 5.36, 6.16, 6.3, 6.1, 5.6, 7.6, 6.52, 6.52, 6.52, 5.72, 6.0, 5.51, 6.94, 6.51, 5.81, 3.48, 2.99, 3.22, 3.13, 1.99, 3.55, 5.37, 6.18, 7.15, 8.0, 7.15, 0.0, -5.75, -5.51, -5.81, -5.2, -4.74, -4.83, -3.55, -2.35, -0.89, -0.0, 0.83, 2.09, 1.96, 1.96, 2.82, 3.55, 3.11, 1.84, -4.92, -4.47, -4.92, -0.0, -0.0, 3.16, 3.16, 7.61, 7.61, 7.61, 7.9, 8.24, 8.24, 8.24, 8.85, 9.13, 9.13, 9.72, 10.06, 10.3, 10.65, 10.65, 10.65, 10.3, 10.59, 10.59, 10.87, 10.96, 10.83, 11.08, 11.12, 10.91, 10.34, 9.57, 8.77, 7.97, 7.58, 7.15, 6.71, 6.24, 6.23, 6.16, 6.16, 6.16, 6.23, 6.23, 5.78, 5.78, 5.33, 4.89, 4.92, 4.92, 4.92, 5.36, 6.26, 6.68, 6.16, 5.57, 5.09, 7.06, 6.52, 6.52, 6.52, 6.64, 6.51, 6.51, 7.06, 7.06, 6.71, 4.92, 3.13, 1.05, 1.75, 3.45, 5.1, 6.7, 7.15, 7.37, 9.03, 4.98, -3.0, -5.58, -6.64, -6.2, -5.82, -5.49, -4.87, -3.97, -1.72, -0.0, -0.0, 0.83, 1.73, 2.99, 3.77, 3.97, 3.11, 2.8, -4.66, -4.92, -4.92, -4.4, -0.0, -0.0, -0.0, 7.61, 7.61, 7.61, 7.61, 8.24, 8.24, 8.24, 8.53, 8.81, 9.13, 9.72, 9.72, 10.06, 10.3, 10.65, 10.65, 10.59, 10.59, 10.23, 10.51, 10.79, 10.68, 10.68, 10.91, 11.12, 10.91, 10.77, 10.01, 9.23, 8.42, 7.58, 8.03, 8.05, 7.6, 7.15, 7.15, 7.15, 6.71, 6.26, 6.26, 5.81, 5.36, 4.92, 4.92, 4.92, 5.36, 5.36, 5.81, 5.81, 5.36, 4.89, 4.77, 4.34, 4.11, 5.6, 6.16, 7.06, 6.23, 5.6, 6.0, 8.38, 7.37, 7.94, 4.11, 2.46, 2.44, 4.34, 6.18, 7.12, 7.15, 7.54, 7.85, 7.85, 4.98, -1.7, -5.7, -6.71, -6.2, -6.4, -5.49, -5.06, -2.99, -0.81, -0.0, -0.0, 0.78, 2.99, 3.77, 3.55, 2.64, 2.47, 2.47, -3.22, -4.84, -3.79, -2.4, -0.0, -0.0, 7.61, 7.61, 7.61, 7.61, 8.24, 8.24, 8.53, 8.82, 8.82, 9.42, 9.13, 9.72, 9.72, 10.06, 10.3, 10.3, 10.59, 10.59, 10.51, 10.15, 10.41, 10.3, 10.3, 10.55, 10.91, 10.71, 10.49, 10.0, 9.86, 9.57, 9.23, 8.87, 8.42, 8.03, 7.58, 7.58, 7.15, 7.15, 6.71, 6.26, 5.81, 5.36, 4.92, 5.36, 5.34, 5.57, 5.4, 5.7, 5.33, 4.92, 4.44, 4.44, 4.3, 4.66, 4.85, 5.94, 7.06, 6.4, 4.89, 6.0, 7.1, 8.05, 7.55, 5.37, 3.32, 3.87, 6.01, 7.2, 7.55, 7.6, 8.05, 7.85, 8.33, 8.29, 6.26, 1.41, -5.2, -6.71, -6.71, -6.0, -5.24, -2.15, -0.76, -0.0, -0.0, 0.88, 2.47, 2.82, 2.82, 1.96, 1.96, 2.64, 0.96, -0.0, -1.41, -2.6, -0.0, -0.0, 7.61, 7.61, 7.61, 7.61, 7.61, 8.24, 8.53, 8.53, 8.82, 8.82, 9.13, 9.46, 9.72, 10.06, 10.3, 10.59, 10.59, 10.23, 10.51, 10.15, 10.41, 10.3, 10.3, 10.55, 10.4, 10.0, 10.21, 9.92, 9.7, 9.43, 9.11, 9.23, 8.77, 8.42, 7.97, 7.52, 7.58, 7.13, 6.68, 6.23, 5.81, 5.36, 4.92, 6.71, 6.71, 3.87, 4.55, 4.07, 3.72, 4.43, 4.47, 4.43, 4.3, 4.85, 4.85, 4.41, 6.58, 5.72, 4.89, 6.0, 6.65, 7.6, 7.1, 4.68, 4.2, 5.89, 6.73, 7.2, 7.6, 7.85, 7.85, 7.63, 8.06, 8.06, 6.64, 1.84, -0.96, -5.2, -6.71, -5.73, -4.98, -2.15, -0.99, -0.0, -0.0, -0.0, 0.88, 1.98, 2.12, 2.12, 3.0, 3.0, 3.11, 1.72, -0.0, -0.0, -0.0, -0.0, 7.61, 7.61, 7.91, 7.61, 7.61, 8.22, 8.22, 8.22, 8.82, 8.82, 9.08, 9.13, 9.72, 10.06, 10.06, 10.23, 10.23, 10.51, 10.15, 9.94, 9.86, 9.86, 9.76, 9.76, 10.02, 9.88, 9.71, 9.71, 9.51, 9.21, 9.39, 8.96, 8.64, 8.33, 8.3, 7.87, 7.52, 7.51, 7.06, 6.23, 5.79, 5.33, 5.24, 5.33, 4.92, 7.15, 4.98, 1.11, 0.79, 3.82, 4.34, 4.24, 4.85, 4.85, 4.85, 4.47, 4.41, 4.3, 5.6, 5.6, 6.64, 7.6, 6.6, 5.1, 6.01, 6.11, 6.11, 7.28, 6.26, 6.6, 6.55, 6.6, 7.37, 7.81, 7.81, -0.0, -0.95, -1.05, -5.2, -6.26, -4.57, -1.58, -1.9, -0.0, -0.0, -0.0, -0.0, 1.08, 2.68, 2.68, 2.53, 2.99, 3.35, 3.0, 2.12, 1.32, 1.98, 1.98, 6.98, 6.98, 7.91, 7.91, 7.91, 8.22, 8.22, 8.22, 8.5, 8.82, 8.82, 9.42, 9.46, 10.06, 9.72, 10.01, 10.01, 9.94, 9.94, 9.94, 9.86, 9.86, 9.76, 9.76, 9.63, 9.88, 9.48, 9.2, 9.42, 9.42, 9.42, 9.21, 8.91, 8.48, 8.21, 8.17, 7.87, 7.4, 6.94, 6.61, 6.16, 5.7, 5.67, 5.24, 5.09, 7.37, 4.98, 0.0, 0.0, 4.02, 3.95, 4.24, 4.24, 4.85, 4.85, 4.92, 4.47, 4.85, 5.29, 6.17, 6.64, 7.37, 7.2, 6.79, 7.2, 6.6, 6.0, 6.8, 6.07, 5.94, 4.6, 5.81, 6.64, 7.15, 8.48, -3.2, -2.8, -0.96, -3.48, -5.81, -4.92, -4.02, -2.24, -2.24, 1.79, 1.26, 1.6, 3.39, 2.98, 3.39, 2.98, 2.48, 2.76, 3.63, 3.0, 2.49, 1.63, 1.63, 6.98, 6.98, 7.6, 7.91, 7.91, 7.91, 8.22, 8.22, 8.22, 8.5, 8.82, 8.82, 9.13, 9.72, 9.72, 10.01, 10.01, 9.94, 9.94, 9.59, 9.86, 9.86, 10.13, 9.76, 9.63, 9.1, 8.96, 8.8, 10.55, 8.51, 8.28, 8.28, 8.51, 8.3, 8.48, 8.0, 7.74, 7.26, 6.97, 6.51, 6.04, 5.57, 5.57, 5.51, 5.81, 6.79, 6.61, 4.44, 3.58, 3.58, 3.98, 3.87, 3.98, 3.98, 4.02, 4.92, 4.92, 4.47, 4.47, 4.47, 6.64, 7.12, 7.6, 7.35, 8.06, 7.81, 7.15, 7.6, 6.94, 6.51, 5.4, 5.49, 7.67, 8.82, 6.58, -3.47, -4.54, -3.79, -4.65, -5.36, -5.29, -4.82, -4.34, -1.6, 0.0, 0.0, 1.6, 2.24, 4.92, 3.58, 2.68, 1.6, 2.0, 2.76, 3.91, 2.49, 1.63, 1.63, 6.98, 6.98, 7.27, 7.6, 7.91, 7.91, 8.22, 8.22, 8.22, 8.5, 8.82, 8.82, 9.13, 9.46, 9.72, 10.01, 9.66, 9.94, 9.59, 9.59, 9.86, 10.23, 10.13, 9.58, 9.48, 9.1, 8.96, 8.96, 9.2, 10.23, 6.95, 6.7, 7.07, 7.48, 7.6, 7.81, 8.0, 7.51, 7.26, 6.79, 6.47, 5.99, 5.99, 5.4, 5.6, 6.6, 7.87, 7.58, 7.15, 6.26, 5.34, 4.88, 4.47, 4.02, 4.02, 4.02, 4.02, 4.47, 4.02, 4.47, 4.88, 7.12, 8.48, 7.12, 7.85, 7.6, 7.6, 7.15, 8.05, 7.94, 7.2, 7.2, 7.53, 8.44, 7.15, -0.0, -5.4, -5.51, -5.09, -4.92, -4.82, -4.4, -4.0, -3.82, -0.95, 0.0, 0.95, 2.4, 5.26, 4.47, 2.68, -0.0, -0.0, 1.08, 2.53, 3.22, 2.32, 2.32, 6.98, 6.98, 6.98, 7.6, 7.6, 7.6, 7.9, 8.22, 8.22, 8.22, 8.5, 8.82, 8.85, 9.46, 9.72, 9.72, 9.66, 9.37, 9.37, 9.37, 9.86, 10.23, 10.31, 9.95, 9.58, 9.48, 9.1, 9.1, 9.35, 8.68, 7.31, 6.28, 5.86, 6.41, 6.95, 7.08, 7.31, 7.51, 7.09, 6.79, 6.3, 5.88, 5.81, 5.81, 5.81, 6.1, 7.21, 7.43, 7.51, 6.68, 5.81, 4.92, 4.47, 4.02, 4.02, 3.58, 3.58, 4.02, 4.02, 4.02, 7.45, 7.06, 7.47, 7.47, 7.1, 7.15, 7.15, 6.71, 7.6, 7.94, 7.53, 8.0, 8.38, 8.05, 8.94, 6.17, -5.2, -5.81, -5.36, -4.92, -4.34, -3.72, -4.24, -4.24, -3.39, -0.57, 0.54, 1.88, 4.57, 3.9, 2.68, -2.68, -1.9, -0.0, 1.08, 2.4, 2.99, 2.99, 6.98, 6.98, 6.98, 7.27, 7.6, 7.6, 7.6, 7.9, 7.9, 8.22, 8.5, 8.53, 8.53, 9.13, 9.46, 9.13, 9.42, 9.08, 9.37, 9.37, 9.66, 9.66, 10.01, 9.95, 9.95, 9.86, 9.48, 9.35, 8.96, 9.2, 8.51, 7.31, 6.6, 6.28, 6.28, 6.41, 6.8, 7.2, 6.8, 6.6, 6.1, 6.3, 5.81, 5.81, 5.88, 6.1, 6.6, 6.79, 6.94, 6.61, 5.7, 4.89, 4.44, 3.98, 4.02, 3.58, 3.58, 4.02, 4.02, 4.47, 4.43, 7.06, 7.06, 7.47, 7.94, 7.94, 7.08, 7.1, 7.54, 7.55, 6.98, 8.06, 8.82, 8.45, 9.35, 8.77, 5.36, -5.94, -5.7, -4.92, -4.02, -3.82, -4.0, -4.47, -3.82, -0.54, 0.53, 3.22, 4.4, 3.82, 2.68, -3.13, -2.8, -1.6, -0.0, 1.08, 2.76, 2.76, 6.7, 6.7, 6.98, 7.27, 7.6, 7.6, 7.6, 7.9, 7.9, 8.22, 8.22, 8.53, 8.53, 8.85, 9.13, 9.13, 9.42, 9.37, 9.37, 9.02, 9.66, 9.66, 9.95, 9.95, 9.95, 10.24, 9.86, 9.1, 8.82, 8.82, 8.68, 8.51, 7.81, 7.01, 6.51, 6.28, 6.67, 6.8, 6.8, 6.28, 6.51, 6.0, 5.81, 5.81, 6.1, 6.51, 6.6, 6.6, 6.79, 5.88, 5.57, 5.09, 4.34, 4.3, 3.98, 3.98, 4.02, 4.02, 4.02, 4.47, 4.47, 4.73, 7.89, 7.08, 7.98, 8.85, 7.81, 8.0, 8.0, 7.6, 8.49, 7.1, 9.29, 9.24, 9.79, 9.83, 8.05, 4.11, -5.2, -4.92, -4.02, -3.6, -4.0, -4.0, -3.6, 0.0, 1.41, 3.82, 4.02, 3.58, 3.13, -3.13, -3.39, -2.53, -1.27, -0.0, 2.53, 2.53, 6.34, 6.34, 6.7, 6.98, 7.27, 7.6, 7.6, 7.6, 7.9, 8.22, 8.22, 7.93, 8.53, 8.85, 8.85, 9.13, 9.08, 9.37, 9.02, 9.3, 9.3, 9.66, 9.95, 9.95, 9.95, 10.24, 10.24, 9.3, 9.2, 8.82, 8.82, 8.68, 8.51, 8.22, 7.31, 6.8, 6.28, 6.28, 6.28, 6.28, 6.28, 5.75, 5.6, 7.2, 5.37, 5.86, 6.03, 6.28, 6.1, 5.6, 5.31, 4.8, 4.6, 4.3, 3.87, 3.98, 4.02, 4.02, 4.47, 4.47, 4.47, 4.92, 8.05, 7.08, 7.98, 8.85, 8.0, 8.05, 8.05, 7.6, 7.15, 7.1, 8.85, 10.2, 9.39, 9.39, 8.33, 7.2, -7.15, -5.26, -3.72, -2.84, -3.16, -3.6, -3.16, 0.0, 4.47, 3.6, 3.82, 3.82, 3.13, -2.21, -3.35, -2.84, -1.8, -0.0, 2.2, 2.0, 6.34, 6.34, 6.7, 6.98, 6.98, 7.3, 7.6, 7.6, 7.9, 7.9, 8.22, 7.93, 8.24, 8.53, 8.53, 8.82, 8.82, 8.78, 9.02, 9.3, 9.3, 9.3, 9.37, 9.73, 9.73, 10.04, 10.04, 9.67, 9.58, 9.2, 8.82, 8.68, 8.68, 8.51, 8.0, 7.71, 6.8, 6.28, 6.28, 6.28, 5.75, 5.75, 5.75, 7.2, 5.08, 5.29, 5.65, 5.59, 5.49, 5.21, 5.08, 4.55, 4.4, 4.11, 4.3, 3.98, 3.98, 4.47, 4.47, 4.47, 4.47, 4.92, 7.89, 7.08, 7.54, 8.94, 8.49, 7.6, 7.6, 7.6, 7.1, 7.94, 8.49, 8.94, 9.83, 8.9, 8.17, 8.49, -7.15, -5.64, -3.48, -3.72, -3.16, -4.4, 0.0, 4.92, 4.92, 4.47, 4.47, 3.39, 2.53, -1.6, -3.72, -2.84, -1.8, -0.0, -0.0, 2.2, 6.34, 6.34, 6.34, 6.98, 6.98, 6.98, 7.3, 7.6, 7.6, 7.9, 7.9, 7.93, 8.24, 8.53, 8.53, 8.82, 8.5, 8.78, 9.08, 9.08, 9.3, 9.37, 9.37, 9.37, 9.73, 10.04, 10.04, 10.04, 9.97, 9.58, 9.2, 8.82, 8.68, 8.28, 8.15, 8.0, 7.81, 7.31, 6.8, 6.28, 5.86, 5.29, 5.65, 5.75, 7.76, 4.94, 4.47, 4.47, 4.75, 5.29, 4.65, 4.29, 4.17, 4.52, 4.11, 4.3, 4.43, 4.47, 4.47, 4.47, 4.47, 4.92, 5.32, 8.05, 8.05, 8.05, 7.6, 7.6, 7.55, 8.0, 7.42, 7.54, 8.49, 8.94, 9.39, 7.15, 2.12, -7.37, -7.15, -4.77, -4.09, -3.72, -3.72, -3.16, 0.0, 3.48, 4.4, 4.92, 4.47, 3.58, -0.0, -1.6, -3.72, -2.53, -1.8, -0.0, -0.0, -0.0, 6.34, 6.34, 6.63, 6.63, 6.98, 6.98, 6.98, 7.3, 7.6, 7.6, 7.6, 7.93, 7.93, 8.22, 8.5, 8.5, 8.78, 8.78, 9.08, 9.08, 9.37, 9.37, 9.37, 9.37, 9.67, 9.67, 10.04, 10.04, 9.67, 9.97, 9.58, 9.2, 8.82, 8.27, 8.15, 8.15, 8.15, 8.0, 7.08, 6.41, 6.03, 5.86, 5.35, 5.59, 6.56, 7.82, 2.86, 2.36, 3.47, 4.12, 4.37, 4.65, 4.55, 4.4, 4.19, 4.34, 4.44, 4.47, 4.92, 4.92, 4.47, 4.47, 7.6, 7.45, 7.89, 7.94, 7.6, 8.49, 7.54, 7.85, 7.85, 7.6, 8.49, 8.49, 8.49, 6.71, -3.22, -6.36, -5.7, -4.77, -4.34, -4.09, -4.09, -1.8, 0.0, 3.16, 3.16, 4.0, 4.02, 3.58, -0.0, -0.0, -2.48, -2.53, -2.84, -0.0, 5.36, 5.36, 6.08, 6.08, 6.35, 6.63, 6.98, 6.98, 6.98, 7.3, 7.3, 7.6, 7.6, 7.9, 8.22, 8.22, 8.22, 8.22, 8.78, 8.78, 9.08, 9.08, 9.37, 9.37, 9.37, 9.37, 9.37, 9.67, 9.67, 10.04, 9.67, 9.67, 9.97, 9.58, 9.2, 8.27, 8.27, 7.9, 8.15, 8.15, 7.61, 6.95, 6.41, 6.15, 5.59, 5.93, 7.61, 7.31, 4.27, 1.6, 2.2, 2.84, 4.11, 4.07, 4.37, 4.4, 4.6, 4.34, 4.88, 4.88, 4.92, 4.92, 4.92, 4.92, 4.87, 7.89, 7.89, 7.47, 7.89, 7.94, 6.94, 7.42, 8.0, 7.6, 8.82, 7.37, 8.49, 7.15, 4.92, -5.81, -6.14, -5.7, -4.34, -4.66, -4.09, -2.2, 0.0, 3.16, 3.16, 3.6, 4.02, 2.53, -0.0, -0.0, -0.0, -1.8, -0.0, 4.92, 4.92, 4.92, 6.35, 6.35, 6.35, 6.35, 6.63, 6.98, 6.98, 6.98, 6.98, 7.3, 7.6, 7.6, 7.9, 7.9, 8.22, 8.52, 8.52, 8.78, 9.08, 9.08, 9.37, 9.37, 9.37, 9.37, 9.37, 9.37, 9.37, 9.73, 10.04, 10.04, 9.67, 9.67, 9.58, 9.2, 8.82, 8.27, 8.27, 7.9, 7.9, 7.61, 7.07, 6.51, 6.15, 6.23, 6.79, 7.6, 6.79, 4.8, 2.86, 2.86, 3.2, 4.07, 4.0, 4.4, 4.6, 4.77, 4.88, 4.88, 5.32, 5.36, 5.36, 4.92, 4.92, 7.45, 7.06, 6.9, 7.28, 8.06, 6.57, 7.37, 7.6, 8.0, 7.63, 8.06, 7.85, 8.05, 7.85, 6.57, 3.72, -6.26, -5.2, -4.77, -3.48, -2.2, 0.0, 3.48, 4.4, 4.4, 4.47, -0.0, -0.0, -0.0, 1.27, -0.0, 4.47, 4.92, 4.92, 4.92, 5.98, 5.98, 6.35, 6.35, 6.63, 6.98, 6.98, 6.98, 6.98, 6.98, 7.3, 7.6, 7.6, 7.9, 8.19, 8.52, 8.52, 9.08, 9.08, 9.08, 9.37, 9.37, 9.37, 9.37, 9.73, 9.37, 9.37, 9.73, 9.73, 9.73, 10.04, 9.67, 9.3, 9.3, 8.93, 8.55, 8.0, 8.27, 7.9, 7.72, 7.35, 6.79, 6.44, 6.23, 6.23, 7.23, 7.48, 7.01, 5.47, 4.41, 3.79, 4.07, 4.17, 4.6, 4.8, 5.24, 5.33, 5.33, 5.33, 5.36, 5.81, 5.36, 5.36, 4.88, 7.47, 7.47, 8.06, 7.37, 7.12, 7.1, 8.49, 7.37, 7.53, 8.06, 8.45, 8.49, 8.77, 8.72, 9.13, 6.88, 5.81, -5.6, -4.46, -2.4, 0.0, 0.0, 4.11, 5.2, 5.36, -0.0, -0.0, 1.8, 3.16, 4.47, 4.47, 4.92, 4.92, 4.92, 5.98, 5.98, 6.35, 6.35, 6.63, 6.63, 6.98, 6.98, 6.98, 6.98, 6.98, 7.6, 7.6, 7.9, 8.19, 8.52, 8.52, 9.08, 9.08, 9.08, 8.82, 8.82, 9.16, 9.16, 9.42, 9.42, 9.42, 9.42, 9.73, 9.73, 9.73, 9.73, 9.37, 9.3, 8.93, 8.93, 8.55, 8.0, 8.0, 7.64, 7.44, 7.35, 6.79, 6.79, 6.57, 6.79, 7.23, 7.48, 7.2, 6.28, 5.21, 5.08, 5.31, 5.09, 5.09, 5.24, 5.24, 5.78, 5.78, 5.81, 5.81, 5.81, 5.81, 5.36, 5.24, 8.38, 8.38, 7.6, 7.6, 7.6, 7.54, 7.37, 8.0, 8.0, 8.49, 8.94, 8.77, 9.24, 8.99, 8.99, 8.85, 0.0, -6.4, -5.51, -4.43, 0.0, 0.0, 4.43, 4.92, 4.02, 2.84, 3.6, 3.16, -0.0, 4.92, 4.92, 4.92, 4.92, 5.98, 5.98, 5.98, 6.35, 6.63, 6.63, 6.98, 6.98, 6.98, 6.98, 6.98, 7.3, 7.6, 7.9, 8.19, 8.52, 8.52, 8.78, 9.08, 8.82, 8.82, 8.82, 9.16, 9.16, 9.16, 9.16, 8.84, 9.16, 9.42, 9.42, 9.42, 9.73, 9.37, 9.37, 9.01, 8.65, 8.65, 8.08, 8.0, 8.0, 7.8, 7.44, 6.87, 6.87, 6.79, 6.79, 6.79, 7.23, 7.23, 6.95, 6.8, 6.51, 5.88, 5.81, 5.57, 5.7, 5.67, 5.67, 6.22, 6.26, 6.26, 6.26, 5.81, 5.81, 5.32, 8.49, 8.05, 8.05, 8.05, 7.6, 8.0, 8.0, 8.05, 8.49, 8.94, 8.94, 8.9, 8.9, 8.9, 8.77, 8.77, 8.94, -6.7, -6.07, -5.6, -3.0, 0.0, 0.0, 4.47, -0.0, 2.8, 2.84, 3.16, 2.0, 2.2, 4.92, 4.92, 4.92, 5.98, 5.98, 5.98, 5.98, 6.63, 6.63, 6.63, 6.98, 6.98, 6.98, 6.98, 6.98, 7.6, 7.9, 8.19, 8.52, 8.52, 8.52, 8.52, 8.82, 8.82, 8.82, 9.16, 9.16, 8.84, 8.84, 8.84, 8.84, 8.84, 8.78, 9.08, 9.08, 9.08, 9.08, 9.01, 9.01, 8.65, 8.29, 8.08, 7.73, 7.51, 7.51, 7.44, 6.87, 6.87, 6.79, 6.79, 6.79, 7.07, 6.95, 6.95, 6.8, 6.51, 6.3, 5.57, 5.57, 5.7, 5.7, 6.23, 6.26, 6.26, 6.26, 6.26, 5.81, 5.32, 8.05, 8.05, 8.05, 8.05, 8.05, 8.49, 8.49, 8.49, 8.94, 8.94, 8.94, 8.94, 8.49, 8.45, 8.44, 8.9, 8.05, 0.0, -5.81, -6.07, -6.0, -4.74, 0.0, 3.13, 2.68, 2.21, 2.84, 2.23, 2.48, 3.48, 3.48, 3.48, 3.48, 5.98, 5.98, 5.98, 5.98, 6.35, 6.63, 6.63, 6.63, 6.63, 6.98, 6.98, 6.98, 7.9, 7.9, 8.19, 8.52, 8.52, 8.52, 8.52, 8.82, 8.82, 8.82, 9.16, 9.16, 8.84, 8.84, 8.53, 8.53, 8.22, 8.52, 8.52, 8.78, 9.08, 8.73, 8.73, 8.73, 8.38, 8.65, 8.08, 8.08, 7.51, 7.51, 7.51, 7.17, 6.87, 6.87, 6.79, 6.79, 7.07, 6.7, 6.95, 6.8, 6.51, 6.1, 5.81, 5.57, 5.7, 6.14, 6.23, 6.26, 6.71, 6.71, 6.26, 5.81, 5.36, 7.15, 7.54, 7.81, 8.0, 8.05, 8.9, 8.77, 8.49, 8.45, 8.45, 8.49, 8.49, 8.05, 8.0, 8.0, 8.0, 8.0, 7.37, -6.32, -5.7, -5.36, -4.11, 0.0, 0.0, 3.13, 3.58, 2.84, 1.8, 2.84, 3.16, 2.2, 2.2, 2.2, 5.98, 5.98, 5.98, 5.98, 5.98, 6.63, 6.63, 6.63, 6.63, 6.98, 6.98, 7.28, 7.9, 7.9, 8.19, 8.19, 8.52, 8.52, 8.52, 8.52, 8.82, 8.82, 8.82, 8.84, 8.84, 8.84, 8.53, 8.53, 8.22, 8.22, 8.22, 8.19, 8.45, 8.45, 8.73, 8.73, 8.38, 8.38, 8.44, 8.08, 8.08, 7.51, 7.51, 7.17, 7.21, 6.87, 6.87, 6.79, 6.44, 6.7, 6.41, 6.41, 6.28, 6.3, 5.81, 5.99, 5.7, 6.14, 6.23, 6.26, 6.71, 6.71, 6.26, 5.81, 5.36, 6.71, 7.08, 7.37, 7.54, 7.6, 8.0, 8.29, 8.3, 8.77, 8.33, 8.45, 8.05, 8.05, 8.0, 8.0, 8.0, 8.0, 6.71, 0.0, -5.81, -4.02, -3.48, 0.0, 4.92, 4.47, 4.02, 4.02, 3.58, 4.02, 3.16, -0.0, -0.0, -0.0, 5.98, 5.98, 5.98, 5.98, 5.98, 6.24, 6.63, 6.63, 6.63, 6.63, 6.98, 7.58, 7.9, 7.9, 7.9, 8.19, 8.19, 8.52, 8.52, 8.52, 8.82, 8.82, 8.82, 8.52, 8.52, 8.22, 8.22, 8.22, 8.22, 8.22, 8.22, 8.19, 8.19, 8.19, 8.19, 8.73, 8.73, 8.38, 8.15, 7.81, 8.08, 7.51, 7.51, 7.51, 7.17, 6.87, 6.87, 6.79, 6.44, 6.51, 6.41, 6.41, 6.28, 6.1, 5.81, 5.99, 6.14, 6.23, 6.23, 6.23, 6.67, 6.67, 6.66, 6.22, 5.78, 4.92, 6.71, 6.71, 6.64, 7.08, 7.15, 7.15, 7.53, 7.82, 8.99, 8.77, 8.45, 8.05, 8.05, 8.05, 8.05, 8.05, 7.6, 8.05, -4.02, -3.2, -2.53, 0.0, 4.92, 5.36, 4.92, 4.92, 4.47, -0.0, -0.0, -0.0, -0.0, -0.0, 5.56, 5.56, 5.98, 5.98, 5.98, 5.98, 6.63, 6.63, 6.63, 6.63, 7.28, 7.28, 7.9, 7.9, 7.9, 7.9, 7.9, 8.19, 8.52, 8.52, 8.82, 8.82, 8.22, 8.22, 8.22, 7.91, 7.91, 7.91, 8.22, 8.22, 8.22, 8.19, 8.19, 8.19, 8.19, 8.19, 8.73, 8.38, 8.38, 7.81, 8.08, 7.51, 7.51, 7.51, 7.17, 7.21, 6.87, 6.79, 6.79, 6.51, 6.15, 6.41, 6.28, 6.1, 6.3, 6.47, 6.14, 6.58, 6.67, 6.67, 6.67, 6.67, 6.67, 6.66, 5.78, 4.89, 7.1, 6.71, 6.71, 7.08, 7.08, 7.15, 6.71, 6.45, 7.82, 7.76, 8.29, 8.49, 8.49, 8.49, 8.49, 8.49, 7.15, -6.26, -4.02, -3.2, -2.21, 0.0, 3.58, -0.0, -0.0, -0.0, -0.0, -0.0, -1.41, -1.08, -1.08, -1.08, 5.56, 5.56, 5.98, 5.98, 5.98, 5.98, 5.98, 6.63, 6.63, 6.98, 6.98, 7.28, 7.58, 7.9, 7.9, 7.9, 7.9, 7.9, 7.9, 8.82, 8.82, 8.54, 8.22, 8.22, 8.22, 7.91, 7.91, 7.91, 8.22, 8.22, 7.9, 8.19, 8.19, 8.19, 7.9, 8.19, 8.49, 8.49, 8.38, 8.15, 8.08, 7.85, 7.51, 7.51, 7.17, 7.21, 6.87, 6.87, 6.79, 6.51, 6.51, 6.41, 6.28, 6.1, 6.3, 6.47, 6.6, 6.6, 6.6, 6.6, 6.6, 6.6, 6.58, 6.58, 6.11, 5.24, 4.8, 4.92, 7.15, 7.15, 7.15, 7.15, 7.1, 6.94, 6.88, 7.1, 8.05, 8.49, 8.49, 8.45, 8.44, 8.49, 7.6, -6.71, -4.38, -2.53, -1.9, -1.9, 2.24, 2.24, -0.0, -0.0, -0.0, -0.0, -1.27, -1.27, -1.27, -1.27, 5.56, 5.56, 5.56, 5.98, 5.98, 5.98, 5.98, 6.63, 6.63, 6.63, 6.98, 6.98, 7.28, 7.28, 7.9, 7.9, 7.9, 7.9, 8.21, 8.21, 8.54, 8.54, 8.22, 8.22, 8.22, 7.91, 7.91, 7.91, 7.6, 7.9, 8.19, 8.19, 8.19, 7.9, 7.59, 7.59, 7.86, 8.15, 8.15, 8.38, 8.44, 8.08, 7.51, 7.51, 7.17, 7.44, 6.87, 6.87, 6.79, 6.79, 6.7, 6.15, 6.28, 6.51, 6.72, 6.9, 6.47, 6.6, 7.04, 7.04, 6.6, 6.6, 6.47, 6.42, 6.36, 5.99, 5.57, 5.24, 7.1, 7.54, 7.6, 8.05, 8.0, 8.29, 8.06, 7.85, 7.54, 8.05, 8.49, 8.0, 8.0, 7.55, 6.0, -6.14, -5.7, -4.24, -3.2, -3.13, -2.24, 2.24, 2.24, -0.0, -0.0, -0.0, -1.8, -1.6, -1.6, -1.6, 5.56, 5.56, 5.56, 5.98, 5.98, 5.98, 5.98, 6.35, 6.63, 6.63, 6.98, 7.28, 7.28, 7.28, 7.28, 7.9, 7.9, 8.21, 8.21, 8.21, 8.21, 8.21, 7.9, 7.9, 7.9, 7.6, 7.6, 7.6, 7.6, 7.9, 8.19, 8.19, 8.19, 7.59, 7.59, 7.59, 7.59, 8.15, 8.15, 8.15, 8.15, 8.08, 8.08, 7.51, 7.51, 7.17, 7.44, 6.87, 6.87, 6.79, 6.79, 6.7, 6.41, 6.67, 6.51, 6.72, 6.3, 6.9, 6.9, 6.9, 6.9, 6.51, 6.47, 6.9, 6.64, 5.81, 5.4, 5.31, 5.57, 7.37, 8.0, 8.05, 8.05, 8.44, 8.29, 8.44, 8.05, 7.6, 8.05, 8.05, 7.6, 7.6, 5.81, -5.2, -6.17, -4.92, -3.13, -3.13, -2.68, -2.68, 2.24, 3.13, -0.0, -0.0, -2.84, -1.8, -1.8, -1.8, 5.6, 5.6, 5.85, 5.98, 5.98, 5.98, 6.27, 6.64, 6.35, 6.63, 6.93, 6.93, 7.28, 7.28, 7.28, 7.28, 7.9, 8.21, 8.21, 8.21, 8.21, 8.21, 7.9, 7.9, 7.9, 7.6, 7.6, 7.6, 7.6, 7.6, 8.19, 8.19, 7.86, 7.86, 7.59, 7.59, 7.59, 7.59, 8.15, 8.15, 8.15, 8.15, 8.08, 8.08, 7.51, 7.51, 7.51, 7.44, 7.44, 6.87, 7.15, 6.7, 6.95, 6.67, 6.92, 6.51, 6.79, 6.79, 6.79, 6.79, 6.94, 6.79, 6.79, 6.72, 6.64, 6.23, 5.81, 5.08, 5.08, 7.12, 7.81, 7.98, 7.6, 7.6, 8.0, 8.05, 7.6, 8.0, 8.0, 7.6, 7.54, 7.54, 7.54, 5.81, -6.26, -5.73, -3.9, -3.13, -2.68, -2.68, 2.24, 3.13, 3.58, -2.84, -2.84, -1.8, -1.8, -1.8, 5.6, 5.6, 5.6, 5.6, 6.27, 6.27, 6.27, 6.64, 6.64, 6.64, 6.93, 6.93, 6.93, 7.28, 7.28, 7.28, 7.59, 8.21, 8.21, 8.21, 8.21, 8.21, 7.9, 7.9, 7.6, 7.6, 7.6, 7.6, 7.6, 7.6, 8.19, 8.19, 7.86, 7.86, 7.59, 7.59, 7.59, 7.59, 8.15, 8.15, 8.15, 8.15, 8.15, 8.15, 7.81, 8.08, 7.51, 7.51, 7.44, 7.44, 7.35, 7.07, 6.95, 7.2, 6.8, 7.01, 7.01, 7.01, 6.79, 6.79, 6.79, 6.79, 6.79, 7.14, 7.06, 6.4, 5.6, 5.47, 5.21, 7.2, 7.53, 7.37, 7.15, 7.15, 7.15, 7.6, 7.6, 7.6, 7.55, 7.6, 8.0, 8.0, 8.45, 5.7, -5.36, -6.17, -4.77, -3.39, -2.97, -2.4, -2.24, 2.68, -0.0, -2.84, -2.84, -2.84, -2.84, -2.84, 5.6, 5.6, 5.6, 5.6, 6.0, 6.0, 6.27, 6.64, 6.64, 6.64, 6.64, 6.64, 6.64, 6.97, 7.28, 7.28, 7.59, 7.59, 7.88, 7.88, 7.88, 7.88, 7.59, 7.59, 7.6, 7.6, 7.6, 7.6, 7.6, 7.6, 8.19, 8.19, 7.86, 7.86, 7.59, 7.59, 7.59, 7.59, 7.86, 8.15, 8.15, 8.15, 8.15, 8.15, 8.15, 7.81, 8.08, 7.73, 7.51, 7.44, 7.44, 7.23, 7.34, 6.95, 7.2, 7.31, 7.51, 7.09, 7.26, 7.21, 7.21, 7.01, 7.01, 7.01, 6.92, 6.4, 6.0, 5.75, 5.49, 5.75, 6.3, 8.44, 7.6, 7.15, 7.1, 7.54, 8.0, 8.0, 7.55, 8.0, 8.0, 8.0, 8.49, 6.2, -4.92, -6.61, -5.4, -3.6, -2.98, -2.4, -1.58, -2.24, -1.9, -1.6, -2.84, -2.84, -2.84, -2.84, 5.6, 5.6, 5.6, 5.6, 6.0, 6.0, 6.0, 6.64, 6.64, 6.64, 6.64, 6.64, 6.64, 6.64, 6.97, 7.59, 7.59, 7.59, 7.59, 7.88, 7.88, 7.88, 7.59, 7.59, 7.6, 7.6, 7.6, 7.6, 7.6, 8.19, 8.19, 8.19, 7.86, 7.86, 7.59, 7.59, 7.59, 7.59, 7.86, 8.15, 8.15, 8.15, 8.15, 8.15, 8.15, 8.15, 8.15, 8.08, 8.08, 8.0, 7.44, 7.61, 7.23, 7.48, 7.31, 7.31, 7.51, 7.51, 7.51, 7.09, 7.09, 7.09, 7.01, 7.43, 7.33, 6.92, 6.28, 6.28, 5.86, 5.49, 6.28, 8.77, 8.05, 8.49, 7.08, 7.54, 7.55, 8.0, 7.55, 7.6, 8.05, 8.05, 8.05, 7.15, 4.47, -6.58, -5.4, -4.29, -3.58, -2.98, -2.21, -2.68, -2.68, -2.68, -2.8, -2.8, -2.8, -2.8, 5.6, 5.6, 5.6, 5.6, 6.0, 6.0, 6.0, 6.0, 6.35, 6.35, 6.64, 6.64, 6.64, 6.64, 6.64, 7.27, 7.59, 7.59, 7.59, 7.88, 7.88, 7.59, 7.59, 7.59, 7.3, 7.6, 7.6, 7.6, 7.6, 8.19, 8.19, 8.19, 8.19, 7.86, 7.86, 7.59, 7.59, 7.59, 7.86, 8.15, 8.15, 8.15, 8.15, 8.15, 8.73, 8.38, 8.38, 8.44, 8.08, 8.0, 7.72, 7.35, 7.61, 7.48, 7.48, 7.71, 7.31, 7.51, 7.51, 7.51, 7.51, 7.51, 7.43, 7.43, 7.33, 6.67, 6.28, 6.03, 5.86, 5.49, 5.49, 6.1, 6.6, 8.94, 7.15, 7.15, 7.6, 8.05, 7.6, 7.6, 7.6, 7.6, 7.6, 7.6, 5.36, -6.07, -5.37, -4.65, -4.29, -3.48, -3.72, -3.82, -3.39, -3.13, -3.13, -3.39, -3.39, -3.39, 5.6, 5.6, 5.6, 5.6, 6.0, 6.0, 6.0, 6.0, 6.35, 6.35, 6.64, 6.64, 6.64, 6.64, 6.64, 7.27, 7.59, 7.59, 7.59, 7.88, 7.88, 7.59, 7.59, 7.59, 7.3, 7.6, 7.6, 7.6, 7.6, 8.19, 8.19, 8.19, 8.19, 7.86, 7.86, 7.59, 7.59, 7.59, 7.86, 8.15, 8.15, 8.15, 8.15, 8.15, 8.73, 8.38, 8.38, 8.44, 8.08, 8.0, 7.72, 7.35, 7.61, 7.48, 7.48, 7.71, 7.31, 7.51, 7.51, 7.51, 7.51, 7.51, 7.43, 7.43, 7.33, 6.67, 6.28, 6.03, 5.86, 5.49, 5.49, 6.1, 6.6, 8.94, 7.15, 7.15, 7.6, 8.05, 7.6, 7.6, 7.6, 7.6, 7.6, 7.6, 5.81, -5.36, -5.94, -4.98, -4.65, -4.8, -4.4, -4.77, -4.47, -4.47, -4.34, -4.0, -4.0, -4.0]}, {"header": {"dx": 0.06612293990616946, "dy": 0.0552356325346848, "nx": 98, "ny": 59, "la1": 35.046912555036876, "la2": 31.78801023549047, "lo1": -121.43107172385933, "lo2": -114.95102361305473, "refTime": "2026040722", "parameterCategory": 1, "parameterNumber": 3}, "data": [-9.17, -9.17, -9.19, -9.19, -9.19, -8.59, -8.23, -7.96, -7.96, -7.32, -6.94, -5.67, -5.06, -3.39, -1.76, -0.85, 0.0, 0.0, -1.32, -6.94, -7.01, -7.01, -5.6, -5.6, -4.89, -4.89, -4.89, -4.89, -4.89, -5.37, -4.98, -4.98, -5.26, -5.36, -5.26, -4.98, -5.21, -5.58, -5.15, -4.58, -4.16, -4.68, -5.46, -6.24, -6.4, -7.51, -9.27, -9.81, -7.63, -6.7, -5.0, -3.25, -1.76, 0.0, 0.0, 0.94, 1.84, 2.4, 2.4, 2.98, 2.98, 3.16, 3.6, 2.84, 3.48, 3.22, 3.72, 5.37, 6.01, 8.8, 9.83, 8.94, 8.49, 8.05, 0.0, 0.0, -8.94, -8.94, -8.49, -6.71, -5.36, -4.24, -3.35, -3.72, -2.23, -0.87, 0.0, 0.0, 0.0, 4.74, 7.6, 7.15, 6.61, 6.17, 6.14, 5.7, 5.26, 5.36, -9.17, -9.17, -9.48, -9.19, -9.5, -8.87, -8.59, -8.23, -7.59, -7.59, -6.96, -7.38, -5.86, -4.5, -3.39, -2.39, -0.89, -1.28, -1.33, -3.72, -7.6, -7.45, -7.45, -6.8, -4.89, -4.89, -4.89, -5.58, -5.58, -5.58, -6.0, -5.94, -6.17, -5.81, -6.17, -5.6, -6.21, -6.21, -6.6, -6.18, -5.69, -6.95, -7.27, -8.12, -9.06, -10.27, -10.87, -9.06, -7.36, -5.76, -4.92, -3.36, -2.59, -1.47, 0.0, 0.0, 0.89, 1.14, 1.41, 1.41, 1.84, 1.55, 2.0, 0.0, 0.0, 0.0, 2.12, 2.4, 3.8, 6.95, 10.28, 0.0, 0.0, 0.0, 0.0, -6.01, -9.39, -8.94, -8.49, -6.71, -5.36, -4.24, -3.35, -3.72, -2.23, -0.87, 0.0, 0.0, 0.0, 4.74, 7.6, 7.15, 6.61, 6.17, 6.14, 5.7, 5.26, 5.36, -9.17, -9.17, -9.48, -9.19, -9.19, -9.21, -8.87, -8.23, -7.59, -7.33, -6.97, -6.08, -5.86, -5.0, -3.78, -2.59, -2.59, -2.59, -2.71, -3.87, -6.0, -7.6, -7.45, -7.47, -6.44, -5.58, -5.58, -5.58, -6.57, -6.99, -7.12, -7.37, -6.88, -7.15, -6.17, -7.06, -6.57, -7.2, -7.76, -7.82, -8.06, -8.93, -10.58, -13.01, -13.24, -13.18, -10.43, -6.83, -6.04, -6.04, -5.21, -4.2, -2.57, -1.75, -0.77, 0.0, 0.0, 0.0, 0.0, 1.52, 1.41, 0.0, 0.0, 0.0, 0.0, 0.0, 0.0, 0.0, 0.0, 0.0, 0.0, 0.0, -9.83, 0.0, 0.0, -3.8, -8.8, -9.83, -8.05, -6.26, -5.36, -4.66, -3.82, -3.35, -2.53, -2.84, -1.66, -0.96, 1.52, 7.89, 8.94, 8.05, 6.17, 6.17, 5.4, 4.8, 4.4, 4.47, -9.46, -9.17, -9.48, -9.19, -9.19, -9.21, -8.87, -8.59, -8.23, -7.33, -7.33, -6.69, -6.84, -5.18, -4.25, -4.25, -4.25, -4.44, -4.13, -3.25, -4.5, -7.37, -7.45, -7.81, -6.99, -7.28, -6.21, -6.16, -6.88, -7.37, -7.85, -8.77, -8.29, -8.38, -8.05, -7.89, -8.48, -9.04, -9.36, -10.4, -11.66, -13.34, -14.06, -13.36, -12.76, -11.42, -6.53, -5.36, -4.5, -4.5, -4.71, -4.34, -3.45, -1.84, -0.94, -0.89, 0.0, 0.0, 0.0, 0.0, 0.0, 0.0, 0.0, 0.0, -1.98, -2.12, -2.4, -1.95, -2.17, -2.39, -5.95, -9.2, -9.83, -8.94, -6.32, 0.0, -4.4, -10.28, -7.2, -5.81, -4.47, -3.16, -3.35, -3.35, -3.16, -2.95, -1.99, 0.0, 6.8, 9.83, 9.39, 7.15, 5.73, 5.81, 4.98, 3.22, 3.48, 4.02, -9.46, -9.17, -9.48, -9.19, -9.19, -9.5, -8.87, -8.59, -8.23, -7.96, -7.33, -6.67, -6.7, -5.29, -4.25, -5.14, -5.41, -5.0, -5.0, -5.0, -4.8, -7.28, -7.6, -7.89, -7.53, -7.89, -7.89, -7.89, -8.38, -7.55, -8.45, -9.35, -10.12, -10.08, -10.28, -10.73, -10.62, -11.3, -13.15, -15.15, -15.2, -13.39, -10.98, -9.26, -8.64, -6.83, -5.21, -3.45, -2.69, -2.54, -3.8, -3.6, -2.83, -2.54, -1.75, -0.89, -0.84, 0.0, 0.0, 0.0, 0.0, 0.0, 0.0, 0.0, 0.0, -1.73, -1.73, -1.84, -2.06, -5.9, -8.23, -9.11, -7.6, -7.6, -8.05, -7.2, -4.2, -9.39, -6.8, -4.4, -3.6, -3.48, -3.16, -2.84, -2.48, -1.19, 0.0, 5.06, 9.26, 9.83, 7.6, 5.73, 6.17, 5.37, 4.11, 2.99, 2.73, 3.82, -9.46, -9.17, -9.48, -9.19, -9.19, -9.5, -9.21, -8.59, -8.23, -7.96, -7.61, -6.34, -6.42, -5.29, -4.44, -4.25, -5.14, -5.35, -6.45, -7.24, -6.84, -6.73, -8.94, -8.82, -8.38, -8.38, -8.82, -8.82, -8.82, -9.39, -8.49, -9.35, -9.35, -10.28, -11.62, -12.07, -12.02, -12.18, -14.53, -16.02, -14.65, -11.99, -9.04, -7.9, -6.98, -5.9, -5.06, -3.49, -2.57, -1.75, -1.84, -2.54, -2.83, -1.84, -1.84, -0.94, -0.94, 0.0, 0.0, 0.0, 0.0, 0.0, 0.0, 0.0, 0.0, 0.0, -1.73, -1.52, -1.4, -3.15, -6.32, -7.89, -6.71, -6.26, -6.51, -6.71, -6.71, -6.26, -5.81, -4.66, -4.66, -4.11, -2.6, 0.0, 1.98, 5.37, 7.28, 8.06, 7.97, 6.26, 6.26, 6.17, 5.6, 4.89, 3.22, 1.84, 1.19, 3.58, -9.46, -9.17, -9.48, -9.48, -9.19, -9.19, -9.5, -8.59, -8.59, -7.96, -7.3, -6.32, -6.83, -4.92, -4.72, -4.25, -5.0, -5.2, -6.7, -7.36, -7.63, -7.36, -7.2, -8.89, -9.74, -9.83, -10.58, -10.62, -10.62, -8.89, -9.83, -8.77, -8.21, -7.96, -10.47, -12.52, -12.9, -12.89, -13.09, -13.15, -12.94, -11.45, -11.44, -10.19, -8.85, -6.86, -5.06, -4.4, -3.49, -2.39, -2.58, -1.75, -1.75, -1.84, -1.73, -0.89, -0.89, 0.0, 0.0, 0.0, 0.0, 0.0, 0.0, 0.0, 0.0, 0.0, 0.0, -1.23, -1.14, 0.0, 0.0, -7.6, -6.0, -5.09, -5.09, -5.09, -4.92, -4.92, -4.92, -4.11, -5.81, 0.0, 6.4, 6.8, 8.33, 9.03, 8.91, 6.36, 6.17, 6.26, 5.81, 5.09, 4.89, 3.91, 2.12, 1.03, 1.19, 3.82, -9.46, -9.46, -9.17, -9.48, -9.19, -9.19, -9.19, -8.87, -8.87, -7.95, -7.55, -7.51, -7.27, -6.41, -5.86, -5.41, -5.51, -5.6, -5.89, -6.56, -6.56, -5.89, -5.0, -5.69, -7.15, -8.05, -8.94, -10.58, -11.02, -11.06, -10.73, -11.53, -11.3, -10.09, -10.21, -12.42, -12.52, -7.59, -8.94, -11.62, -11.57, -10.91, -11.71, -9.86, -7.81, -7.33, -5.89, -5.21, -4.34, -3.87, -2.54, -2.54, -1.84, -1.96, -0.95, -0.89, -0.95, 0.0, 0.0, 0.0, 0.0, 0.0, 0.0, 0.0, 1.05, 1.23, 0.0, 0.0, 0.0, 3.0, 5.69, 8.05, 7.6, 5.06, 3.16, -0.0, -4.47, -4.92, -4.4, -1.84, -0.0, 6.4, 7.15, 7.6, 8.49, 9.39, 7.5, 5.73, 5.73, 5.81, 5.29, 4.22, 4.11, 2.8, 1.84, 1.03, 1.99, 4.4, -9.46, -9.46, -9.17, -9.48, -9.48, -9.19, -9.19, -9.19, -8.87, -8.24, -7.88, -8.65, -10.79, -10.12, -8.97, -8.07, -7.93, -7.38, -7.38, -6.94, -7.51, -6.3, -5.43, -4.49, -3.63, -3.97, -3.48, -7.6, -11.02, -11.62, -12.07, -13.33, -11.92, -9.08, -7.9, -10.4, 7.59, 6.51, 4.4, -6.79, -9.39, -9.29, -9.03, -8.06, -6.9, -5.58, -5.69, -4.6, -2.83, -2.67, -2.83, -1.84, -1.84, -1.96, -1.98, -1.1, -1.18, -1.25, -1.49, 0.0, 0.0, 0.0, 0.0, 0.0, 0.0, 0.0, 0.0, 1.49, 1.63, 3.0, 5.69, 8.94, 10.28, 8.67, 7.6, 6.71, 0.0, -5.81, -2.8, -1.19, -0.0, 1.84, 5.6, 6.36, 7.15, 7.6, 6.51, 5.64, 4.92, 4.82, 4.0, 3.16, 2.53, 2.8, 1.98, 2.8, 4.11, 5.6, -9.13, -9.46, -9.46, -9.48, -9.48, -9.19, -9.19, -9.19, -8.58, -8.53, -8.78, -9.86, -9.3, -9.21, -11.16, -10.79, -11.39, -10.98, -10.94, -9.42, -9.66, -8.22, -6.4, -2.6, 0.0, 2.99, 3.2, 0.0, -6.7, -10.58, -11.18, -7.81, 0.0, 1.98, 3.0, 4.46, 5.81, 6.26, 6.71, 4.92, 0.0, -3.35, -4.11, -2.99, -1.84, -1.03, 0.0, 0.0, 0.0, 0.0, 0.0, -0.89, -1.75, -1.84, -3.0, -3.0, -3.68, -3.91, -2.99, -2.99, -2.82, -3.0, -1.98, 0.0, 0.0, 0.0, 0.0, 0.0, 0.0, 1.73, 3.8, 9.83, 10.73, 9.83, 9.39, 6.32, 0.0, 0.0, -0.0, -0.0, -1.27, -1.27, -0.0, -0.0, 4.11, 6.26, 6.26, 5.81, 5.09, 4.24, 3.35, 2.41, 3.22, 3.91, 3.91, 3.91, 5.58, 6.0, -9.42, -9.46, -9.46, -9.17, -9.48, -9.48, -9.19, -9.19, -8.58, -8.85, -9.15, -10.23, -10.06, -9.13, -10.22, -9.96, -11.42, -8.54, -7.61, -6.51, -7.06, -3.22, 0.0, 2.4, 5.6, 4.84, 3.79, 3.79, 1.7, 0.0, 0.0, 5.36, 6.26, 5.4, 4.29, 5.21, 6.0, 7.06, 5.95, 5.37, 4.87, 2.82, 1.96, 1.32, 1.32, 1.96, 1.84, 1.65, 1.75, 0.89, 0.0, -0.85, -1.75, -3.4, -4.58, -4.29, -5.37, -6.01, -6.01, -6.01, -3.6, -1.73, -1.84, -1.55, -2.2, -2.16, -1.49, -1.58, -1.84, 0.0, 0.0, 0.0, 0.0, -9.83, -9.39, -9.83, 0.0, 9.39, 6.64, 6.32, -0.0, -2.84, -3.35, -3.48, -3.79, -5.81, 0.0, 0.0, 0.0, 3.48, 3.16, 3.72, 3.93, 4.11, 3.91, 5.24, 5.58, 5.95, -9.66, -9.46, -9.46, -9.17, -9.48, -9.48, -9.48, -9.19, -9.17, -8.87, -9.46, -10.06, -10.36, -9.21, -7.57, -6.53, -5.06, -4.83, -4.21, -3.57, -1.4, 4.8, 4.0, 7.37, 6.79, 6.0, 2.8, 2.21, 4.92, 5.81, 5.94, 6.36, 5.81, 3.93, 3.93, 4.65, 4.74, 5.69, 5.24, 4.5, 4.26, 3.6, 2.67, 1.25, 1.4, 0.96, 1.4, 0.0, 0.0, -1.32, -1.73, -2.67, -3.4, -4.68, -6.11, -6.55, -6.6, -7.44, -8.05, -6.64, 4.0, 6.32, 3.49, 1.05, -1.14, -2.8, -3.91, -4.83, -4.56, -4.83, -6.32, -8.91, -8.48, -8.48, -8.94, -9.83, -9.83, -0.0, 8.4, 8.94, 5.37, 0.0, -4.4, -3.72, -4.0, -5.09, -6.71, -7.15, 0.0, 0.0, 4.47, 3.6, 3.35, 3.22, 4.19, 4.89, 5.58, 5.49, -9.66, -9.72, -9.72, -9.46, -9.17, -9.48, -9.48, -9.48, -9.48, -9.48, -9.48, -9.77, -10.69, -10.43, -9.12, -7.48, -5.05, -3.47, -2.75, -1.65, -0.52, 0.0, 3.79, 2.6, 2.29, 1.35, 1.23, 1.27, 1.84, 1.9, 4.47, 5.37, 4.89, 4.11, 4.54, 4.74, 4.74, 4.87, 4.42, 3.6, 2.83, 1.73, 0.89, 0.0, 0.0, 2.2, 3.22, 1.63, 0.0, -1.58, -2.82, -3.77, -4.21, -2.69, -5.21, -4.96, -5.37, -7.81, -7.89, 6.01, 8.05, 7.37, 6.6, 4.74, 1.98, -0.95, -3.33, -4.74, -5.21, -6.0, -7.01, -7.45, -7.45, -7.6, -8.06, -6.64, -4.2, -4.0, -0.0, 0.0, 0.0, 0.0, 0.0, 0.0, -4.46, -5.21, -6.32, -5.06, -4.74, -6.26, 0.0, 0.0, 0.0, 1.7, 4.02, 4.74, 4.19, 4.74, -9.66, -10.01, -9.72, -9.72, -9.17, -9.17, -9.17, -9.17, -9.48, -9.48, -9.8, -10.09, -9.8, -10.43, -9.84, -8.81, -7.0, -5.18, -3.9, -2.77, -2.19, -1.59, -0.98, 0.0, 1.6, 1.13, 0.76, 0.76, 1.2, 1.61, 2.17, 4.8, 5.06, 3.91, 4.74, 4.74, 4.29, 4.42, 2.99, 1.84, 0.94, 0.95, 0.0, -1.52, 0.0, 5.81, 5.73, 5.06, 1.73, 0.0, 0.0, 0.0, 3.6, 6.79, 5.21, 3.79, 0.0, -6.0, -3.2, 4.89, 8.01, 8.82, 8.06, 6.9, 4.74, 2.12, -0.89, -3.47, -6.4, -6.17, -6.26, -5.81, -5.26, -4.11, -0.0, 2.8, -0.0, -3.0, -4.74, -6.71, -6.0, -5.06, 0.0, 6.26, 0.0, -5.6, -4.74, -3.47, -4.11, -5.6, -5.36, -4.92, 0.0, 0.0, 1.98, 3.0, 3.22, 3.45, -9.66, -10.01, -9.72, -9.72, -9.46, -9.17, -9.17, -9.48, -9.48, -9.8, -9.8, -9.8, -9.8, -9.82, -10.13, -9.48, -8.37, -7.0, -5.85, -4.66, -3.9, -2.84, -2.23, -0.7, 0.0, 0.0, 0.0, 0.0, 1.58, 1.79, 1.79, 2.12, 4.43, 4.29, 4.29, 5.37, 6.01, 3.77, 2.69, 0.0, 0.0, 0.0, -1.4, 0.0, 4.11, 7.6, 7.6, 6.0, 4.74, 3.2, 3.2, 3.72, 6.4, 6.94, 6.94, 4.74, 1.63, 0.0, 4.0, 7.15, 7.6, 7.89, 7.06, 6.08, 6.08, 5.06, 3.0, 0.0, -1.98, -7.15, -5.94, -4.29, -0.0, 4.4, 5.73, 5.81, 4.47, 3.58, -3.6, -4.92, -5.36, -5.81, -6.26, 0.0, 0.0, 0.0, -2.2, -2.73, -4.09, -5.81, -5.94, -4.11, -3.79, 0.0, 0.0, 1.63, 2.6, 2.6, -9.66, -9.66, -9.72, -9.46, -9.46, -9.46, -9.17, -9.48, -9.48, -9.8, -9.8, -9.5, -9.5, -9.5, -9.84, -9.22, -8.83, -8.14, -7.0, -5.85, -4.52, -3.41, -2.87, -1.06, 0.0, 0.57, 0.57, 0.58, 0.54, 1.11, 1.58, 1.58, 1.61, 2.66, 4.29, 5.15, 4.42, 2.67, 0.0, 0.0, -1.84, -0.95, 0.0, 3.0, 6.0, 8.05, 7.6, 6.4, 5.36, 4.74, 4.74, 5.06, 5.72, 4.74, 4.43, 2.8, 1.63, 1.4, 4.83, 6.63, 7.2, 6.9, 5.06, 4.29, 4.29, 4.29, 3.91, 4.14, 1.49, -5.58, -5.4, 1.14, 5.37, 7.1, 7.6, 7.37, 6.21, 4.29, 0.0, -4.47, -4.24, -4.24, -4.4, -5.6, -6.71, 0.0, 0.0, 0.0, -4.47, -5.36, -4.43, -4.11, -5.36, -2.8, -2.12, 0.0, 0.0, 0.0, -9.66, -9.66, -9.66, -9.46, -9.46, -9.46, -9.17, -9.48, -9.48, -9.8, -9.5, -9.5, -9.5, -9.21, -9.5, -8.86, -8.2, -7.76, -7.03, -5.85, -4.52, -3.41, -2.3, -0.59, 0.0, 0.55, 0.0, 0.0, 0.0, 0.0, 0.59, 1.0, 1.0, 2.8, 4.11, 5.15, 4.29, 2.66, 0.0, 0.0, 0.0, 2.4, 4.02, 5.58, 7.63, 7.94, 7.63, 6.52, 5.06, 4.29, 4.29, 4.29, 4.29, 4.29, 3.2, 1.49, 1.32, 2.69, 4.0, 6.01, 6.32, 5.03, 3.91, 2.66, 2.66, 1.98, 3.2, 3.2, 0.0, -3.72, -0.0, 6.0, 7.1, 7.6, 7.37, 7.53, 6.18, 5.15, 3.48, -4.47, -4.4, -4.29, -3.79, -3.22, -5.6, -6.26, 0.0, 0.0, 0.0, -0.0, -2.6, -4.84, -6.26, -5.06, 0.0, -2.8, 0.0, 0.0, -9.66, -9.66, -9.42, -9.13, -9.13, -9.46, -9.17, -9.48, -9.17, -9.48, -9.17, -9.17, -9.17, -8.87, -8.59, -8.23, -8.22, -7.53, -6.43, -5.25, -3.39, -2.87, -1.66, 0.0, 0.57, 0.0, -0.58, -0.56, -0.54, -0.58, 0.0, 0.0, 0.71, 1.61, 2.53, 3.79, 3.22, 1.52, 0.0, 1.52, 3.47, 6.4, 6.4, 6.52, 7.28, 7.6, 6.63, 5.69, 5.03, 4.14, 4.14, 3.91, 3.91, 3.91, 2.82, 2.54, 2.69, 2.69, 4.0, 4.96, 3.8, 3.8, 2.99, 1.4, 1.4, 0.0, 0.0, 0.0, 0.0, 0.0, 5.37, 7.37, 7.12, 7.12, 6.8, 6.18, 6.18, 5.95, 5.24, 2.48, 0.0, -1.55, -1.41, -4.74, -6.4, -7.15, -7.6, 0.0, 4.74, 6.71, 0.0, -4.43, -4.74, 0.0, 0.0, 0.0, 0.0, 0.0, -9.42, -9.42, -9.42, -9.42, -9.13, -9.13, -9.46, -9.48, -9.17, -9.19, -9.17, -9.17, -8.87, -8.59, -8.59, -10.05, -8.23, -7.85, -5.86, -4.02, -2.97, -3.5, -3.47, -3.23, -2.44, -2.37, -1.7, -2.69, -1.73, -1.24, -2.24, 0.0, 0.8, 1.24, 1.9, 1.88, 0.61, 0.0, 0.0, 1.32, 4.16, 4.87, 5.37, 5.37, 6.63, 6.01, 5.31, 3.8, 3.8, 3.8, 2.54, 2.99, 3.91, 3.91, 4.14, 2.54, 2.54, 3.8, 4.0, 4.0, 2.69, 2.69, 1.32, 0.83, 0.0, 0.0, -0.95, -0.89, 0.0, 2.83, 5.46, 5.76, 6.04, 5.36, 4.68, 4.58, 5.95, 6.57, 6.21, 5.58, 4.24, 4.24, 1.7, -0.0, -0.0, -0.0, -0.0, -0.0, 7.6, 4.74, 2.8, 0.0, -0.0, 6.8, 7.15, 6.71, 6.26, 6.26, -9.37, -9.42, -9.42, -9.42, -9.13, -9.13, -9.46, -8.87, -9.17, -9.19, -9.19, -8.59, -8.59, -8.59, -8.87, -8.59, -8.24, -7.26, -7.51, -6.43, -6.35, -5.73, -6.25, -7.36, -7.38, -5.14, -3.97, -2.23, 0.0, -0.0, -0.0, 0.0, 1.58, 1.24, 1.2, 1.16, 0.59, 0.0, 0.0, 0.57, 2.12, 2.77, 2.32, 2.6, 2.82, 3.8, 3.8, 2.69, 2.69, 2.54, 2.54, 3.91, 3.91, 4.14, 3.55, 3.4, 4.0, 3.09, 3.27, 2.46, 1.2, 0.0, 0.0, 0.0, -0.89, -0.89, -0.95, -0.89, 0.0, 1.84, 2.7, 3.25, 2.41, 1.69, 0.89, 3.22, 5.81, 5.94, 6.57, 6.21, 5.58, 5.4, 4.92, 3.48, 1.98, -0.0, -0.0, -0.0, 6.71, 4.43, 2.26, 5.37, 7.21, 7.37, 7.15, 6.79, 5.94, 5.94, -9.37, -9.08, -9.08, -9.08, -9.42, -9.13, -9.17, -8.87, -8.87, -9.19, -9.19, -8.59, -8.59, -8.59, -8.87, -8.86, -8.24, -7.27, -7.9, -9.7, -9.66, -6.94, -6.97, -6.98, -6.08, -3.81, -1.07, -0.53, 0.0, 0.0, 0.0, 1.0, 1.49, 1.4, 1.6, 1.11, 1.23, 0.55, 0.59, 0.57, 1.2, 1.76, 1.8, 1.67, 1.7, 2.54, 2.54, 2.69, 1.4, 1.32, 2.82, 4.56, 5.37, 5.37, 4.14, 3.55, 3.6, 3.27, 1.26, 0.0, 0.0, 0.0, -1.32, -1.25, -0.89, -0.89, -0.89, 0.0, 0.0, 0.89, 1.75, 1.69, 0.0, -2.08, -1.33, 3.4, 5.81, 6.17, 6.45, 6.57, 5.95, 5.58, 5.4, 4.47, 3.82, 3.16, -0.0, -0.0, -0.0, 0.0, 6.01, 7.63, 6.26, 5.81, 6.71, 5.6, 3.79, 3.79, -9.37, -9.37, -9.08, -9.08, -9.42, -8.85, -8.85, -8.87, -8.87, -8.58, -8.58, -8.87, -8.59, -8.59, -8.87, -9.16, -8.23, -7.61, -8.54, -8.87, -7.59, -5.69, -4.46, -5.08, -4.46, -3.37, -1.69, -0.55, 0.0, 0.0, 0.0, 0.7, 1.13, 1.8, 1.76, 1.73, 1.07, 1.16, 1.16, 1.14, 1.14, 1.14, 1.7, 1.7, 1.73, 1.88, 2.69, 1.32, 0.0, 1.4, 4.29, 6.08, 5.37, 4.56, 3.91, 3.91, 4.42, 3.45, 1.26, 0.0, -1.84, -2.67, -2.67, -1.73, -1.84, -1.84, -1.72, -0.95, 0.0, 1.32, 2.83, 2.7, -0.95, -4.8, -0.0, 4.11, 6.94, 5.73, 5.81, 6.2, 6.57, 5.82, 5.6, 5.94, 5.73, 5.26, 4.92, 4.84, 5.06, -0.0, 6.95, 8.49, 4.92, 4.47, 5.09, 4.46, 3.22, 3.22, -9.37, -9.37, -9.37, -9.08, -8.82, -8.85, -8.85, -8.85, -8.87, -8.87, -8.58, -8.87, -8.59, -8.87, -8.51, -8.78, -8.51, -8.24, -8.24, -8.23, -6.5, -4.54, -2.86, -2.32, -3.26, -2.77, -2.21, -1.67, -0.54, 0.0, 0.0, 0.54, 1.19, 1.73, 1.73, 1.7, 1.7, 1.14, 1.14, 1.14, 1.05, 1.16, 1.16, 1.07, 1.08, 1.73, 1.32, 0.0, 1.32, 5.06, 6.52, 6.52, 5.37, 4.56, 4.56, 4.56, 3.55, 3.4, 2.83, 0.0, -3.77, -4.26, -4.26, -3.77, -3.55, -3.0, -1.98, -1.03, 0.0, 0.95, 1.32, 2.82, -3.22, -3.47, -0.0, 0.87, 3.48, 4.6, 5.51, 6.26, 6.2, 6.88, 6.64, 6.88, 6.57, 6.16, 6.45, 7.08, 8.05, 3.97, 2.28, 3.6, 5.36, 3.58, 3.6, 3.48, 2.98, 2.98, -9.02, -9.02, -9.37, -9.37, -8.82, -9.15, -8.85, -8.85, -8.56, -8.56, -8.58, -8.87, -8.59, -8.87, -8.51, -8.51, -8.87, -8.23, -8.23, -7.57, -6.92, -5.17, -3.53, -2.28, -2.23, -2.29, -2.26, -1.71, -1.14, 0.0, 0.0, 0.53, 1.14, 1.16, 1.7, 1.7, 1.67, 1.14, 1.14, 1.14, 1.05, 1.16, 1.07, 1.19, 1.08, 0.55, 0.0, 1.25, 3.91, 5.69, 6.63, 5.69, 3.91, 3.91, 4.56, 4.29, 2.8, 2.64, 2.99, 0.0, -2.99, -5.49, -5.84, -5.49, -3.91, -0.96, 0.96, 1.63, 1.98, 0.95, 0.0, 0.0, -2.12, -2.99, -0.0, 1.84, 4.74, 5.36, 5.72, 6.45, 6.65, 6.26, 6.71, 6.51, 6.99, 6.57, 6.88, 6.88, 6.88, 5.26, -0.0, -0.0, -0.0, 4.02, 2.84, 3.48, 2.2, 2.2, -8.78, -8.78, -8.78, -9.12, -8.82, -8.82, -8.85, -8.85, -8.56, -8.56, -8.58, -8.87, -8.87, -8.87, -8.87, -8.59, -8.59, -8.59, -8.23, -7.57, -6.92, -5.83, -4.68, -3.37, -2.9, -2.3, -1.69, -1.71, -1.09, 0.0, 0.0, 0.56, 0.57, 1.14, 1.14, 1.14, 1.12, 1.12, 1.12, 1.14, 1.05, 1.16, 0.54, 0.61, 0.55, 0.0, 0.0, 1.12, 2.29, 2.77, 2.8, 3.8, 3.91, 3.91, 3.91, 4.29, 3.0, 1.84, 1.73, 1.63, 0.0, -3.48, -4.98, -4.29, 0.0, 4.98, 6.21, 5.37, 4.42, 0.0, -0.89, 0.0, -7.15, -3.45, -1.84, -0.0, 2.6, 4.74, 6.44, 6.21, 6.28, 6.2, 6.26, 6.65, 7.31, 6.88, 6.88, 6.57, 6.21, 5.43, 5.51, -0.0, -0.0, -0.0, 4.47, 4.92, 3.16, 3.16, -8.78, -8.78, -8.78, -9.12, -8.82, -8.82, -8.82, -8.85, -8.56, -8.56, -8.58, -8.87, -8.59, -8.87, -8.87, -8.87, -8.59, -8.23, -8.23, -7.85, -6.92, -6.27, -5.83, -4.68, -4.02, -2.87, -2.25, -1.75, -1.14, -0.54, 0.0, 0.0, 0.52, 0.57, 1.12, 1.12, 1.12, 0.57, 0.57, 0.58, 0.58, 0.59, 0.54, 0.0, 0.0, 0.0, 0.0, 0.0, 0.61, 1.12, 1.67, 1.7, 2.82, 3.91, 3.91, 3.91, 2.66, 1.63, 1.63, 2.82, 2.82, 0.0, 0.0, 0.0, 5.26, 7.85, 7.76, 6.79, 2.51, 0.0, -1.84, -2.58, -1.99, -6.0, -3.72, -0.95, 0.89, 3.33, 4.58, 5.84, 5.95, 6.02, 5.81, 6.26, 6.65, 6.94, 6.99, 6.6, 5.95, 5.43, 5.6, 1.55, -0.0, -0.0, 2.2, 5.36, 4.47, 4.47, -8.78, -8.78, -8.78, -8.78, -8.82, -8.82, -8.82, -8.53, -8.25, -8.56, -8.58, -8.58, -8.87, -8.59, -8.87, -8.87, -8.23, -8.23, -7.96, -7.59, -7.19, -6.53, -5.62, -5.17, -4.68, -4.02, -2.99, -2.35, -1.73, -1.12, -0.54, -0.54, 0.0, 0.0, 0.0, 0.0, 0.0, 0.0, 0.0, 0.0, 0.0, 0.0, 0.0, 0.0, 0.0, 0.0, 0.0, 0.0, 0.0, 0.0, 0.54, 1.19, 1.08, 1.76, 2.8, 2.64, 2.82, 2.49, 2.8, 3.0, 1.4, 1.84, 1.32, 4.11, 8.6, 8.14, 7.82, 4.42, 2.67, 0.0, -0.94, -1.75, -1.75, -2.99, -5.09, -1.14, -0.0, 0.89, 3.2, 4.58, 5.06, 4.98, 4.85, 5.81, 6.26, 6.21, 6.99, 6.6, 6.21, 6.16, 5.75, 5.75, 4.84, 3.22, 3.79, 4.8, 5.36, 5.36, -8.78, -8.78, -8.78, -8.78, -8.82, -8.82, -8.53, -8.24, -8.24, -8.24, -8.56, -8.58, -8.58, -8.87, -8.59, -8.59, -8.23, -8.23, -7.59, -7.33, -6.94, -6.29, -6.29, -5.86, -5.17, -4.51, -3.86, -3.89, -2.9, -2.25, -1.73, -1.11, -1.12, -0.57, -0.54, -0.58, 0.0, 0.0, 0.0, 0.0, 0.0, 0.0, 0.0, 0.0, -0.53, -1.67, -2.16, -1.14, -0.59, 0.0, 0.55, 0.55, 1.23, 1.55, 0.81, 1.98, 2.82, 3.2, 3.91, 3.0, 0.89, 0.0, 0.84, 5.37, 8.3, 9.04, 6.01, 3.6, 0.84, 0.0, 0.0, -1.75, -1.67, -1.84, 0.0, 4.24, 2.6, -0.0, -0.0, 3.0, 4.19, 2.86, 3.04, 4.47, 4.92, 5.29, 5.75, 6.57, 6.57, 6.88, 6.88, 6.16, 5.73, 5.81, 5.64, 5.2, 5.81, 5.81, -8.78, -8.78, -8.78, -8.78, -8.78, -8.82, -8.53, -8.53, -8.24, -8.24, -8.56, -8.87, -8.58, -8.87, -8.59, -8.23, -8.23, -7.96, -7.59, -7.33, -6.94, -6.29, -6.29, -5.86, -5.2, -5.0, -4.54, -4.08, -3.42, -2.77, -2.28, -1.73, -1.75, -1.12, -1.14, -1.07, -0.58, -0.55, -0.56, -0.57, 0.0, 0.0, 0.0, 0.0, 0.0, -1.11, -2.84, -3.49, -2.48, -0.63, 0.0, 0.63, 1.23, 0.81, 0.81, 0.73, 1.32, 4.29, 3.91, 3.0, 0.83, 0.0, 0.89, 6.55, 8.4, 6.73, 5.89, 3.6, 0.0, -1.75, -1.75, -2.54, -2.69, -2.69, 0.95, 6.45, 5.73, 1.3, -0.0, 0.96, 2.99, 2.86, 2.97, 2.68, 4.47, 4.47, 5.29, 5.94, 6.36, 6.36, 6.0, 6.0, 5.43, 6.02, 6.26, 6.26, 6.26, 6.26, -8.78, -8.78, -8.52, -8.78, -8.78, -8.22, -8.22, -8.22, -8.24, -8.24, -7.95, -8.56, -8.58, -8.87, -8.87, -7.96, -7.96, -7.59, -7.33, -7.6, -6.96, -6.96, -6.31, -6.31, -5.89, -5.23, -4.57, -4.57, -3.91, -3.45, -2.93, -2.8, -2.3, -1.67, -1.78, -1.69, -1.07, -1.16, -1.18, -0.57, -0.53, -0.59, -1.16, -0.59, 0.0, 0.0, -2.99, -3.87, -3.95, -1.27, 1.08, 1.41, 0.81, 0.81, 0.81, 0.0, 0.73, 1.23, 2.8, 2.8, 0.95, 0.0, 3.77, 6.79, 6.01, 5.24, 5.24, 4.37, 0.0, -3.77, -4.68, -3.77, -1.84, -1.95, 1.95, 6.71, 6.64, 5.26, 1.3, -0.0, 1.83, 1.58, 1.9, 2.68, 2.24, 4.02, 4.02, 4.34, 3.58, 3.58, 4.22, 4.98, 4.19, 6.0, 6.36, 6.58, 5.94, 5.94, -8.73, -8.73, -8.52, -8.52, -8.52, -8.22, -8.22, -8.22, -7.93, -8.24, -8.24, -8.24, -8.87, -8.87, -8.58, -8.24, -8.24, -7.6, -7.6, -7.6, -6.96, -6.96, -6.31, -6.31, -5.67, -5.23, -5.02, -4.6, -4.12, -4.12, -4.12, -3.45, -2.97, -2.83, -2.19, -2.33, -1.69, -1.71, -1.73, -1.1, -1.12, -1.14, -1.26, -1.16, -1.7, -1.84, -1.99, -3.13, -3.58, 0.0, 0.79, 1.41, 1.41, 0.81, 0.81, 0.0, 0.0, 0.81, 0.88, 1.03, 0.95, 1.84, 4.5, 5.1, 4.5, 3.77, 3.0, 3.4, 1.52, -1.98, -2.76, 0.0, 0.95, 0.0, 2.83, 6.4, 5.6, 5.73, 3.48, -0.0, -0.0, -0.0, -0.0, -0.0, 0.0, 1.26, 0.8, 1.13, 1.98, 1.13, 1.98, 3.72, 4.6, 4.54, 6.0, 6.23, 6.51, 6.51, -8.73, -8.73, -8.19, -8.52, -8.52, -8.52, -8.22, -8.22, -8.22, -7.93, -8.24, -8.24, -8.56, -8.58, -8.58, -8.24, -8.24, -7.6, -7.6, -7.33, -6.96, -6.96, -6.56, -6.31, -5.67, -5.69, -5.04, -4.4, -4.87, -3.97, -4.42, -4.42, -3.97, -3.32, -2.83, -2.86, -2.21, -2.23, -1.61, -1.63, -1.65, -1.67, -1.67, -1.84, -2.32, -2.26, -1.1, -0.55, 0.0, 0.0, 0.57, 1.11, 0.57, 0.57, 0.0, 0.0, 0.0, 0.0, 0.0, 0.0, 0.95, 2.67, 3.8, 3.27, 2.69, 1.95, 0.0, 0.0, 1.73, 1.63, 2.16, 4.58, 4.6, 1.47, 1.32, 5.21, 3.63, 3.79, 3.49, -0.0, -0.88, -0.96, -1.08, -0.8, -1.34, -1.79, -0.8, 0.0, 0.0, 0.0, 0.0, 3.2, 4.0, 4.6, 4.89, 6.23, 6.51, 6.51, -8.73, -8.73, -8.49, -8.19, -8.52, -8.52, -8.22, -8.22, -8.22, -7.93, -8.24, -8.24, -8.56, -8.87, -8.58, -8.24, -7.96, -7.6, -7.33, -7.33, -6.96, -7.22, -6.56, -6.58, -5.92, -5.69, -5.04, -5.04, -4.6, -5.51, -4.05, -4.46, -4.71, -4.03, -3.8, -3.35, -2.86, -2.89, -2.23, -2.26, -1.76, -1.8, -1.8, -2.16, -2.8, -2.75, -1.69, -0.54, 0.0, 0.0, 0.53, 0.61, 0.0, 0.0, 0.0, 0.0, 0.0, 0.0, 0.0, 0.0, 0.61, 2.67, 2.83, 2.67, 1.75, 0.0, 0.0, 0.0, 0.0, 1.32, 3.6, 4.5, 2.83, 0.94, 0.0, 6.26, 2.16, 1.84, 1.7, -0.0, -0.96, -2.2, -2.0, -1.27, -0.95, -1.34, -0.95, -1.2, -1.05, 0.0, 0.0, 2.68, 3.58, 4.34, 4.22, 5.37, 5.81, 5.81, -8.73, -8.73, -8.73, -8.19, -8.19, -8.19, -7.9, -8.22, -8.22, -8.22, -7.93, -8.24, -8.85, -8.87, -8.58, -8.58, -7.96, -7.61, -7.61, -7.61, -6.96, -7.22, -7.09, -6.84, -6.58, -5.92, -5.69, -5.69, -5.26, -4.63, -3.37, -3.42, -4.1, -4.08, -4.05, -3.81, -3.37, -2.89, -2.73, -2.26, -2.29, -2.14, -2.32, -2.32, -2.32, -2.77, -2.4, -1.59, -1.16, -0.56, 0.0, 0.0, 0.0, 0.0, 0.0, 0.0, 0.0, 0.0, 0.0, 0.0, 1.49, 2.82, 2.99, 2.99, 0.89, 0.0, 0.0, 0.0, 0.0, 1.32, 2.83, 4.0, 1.4, 0.0, 0.0, 1.03, 2.6, -0.0, -0.0, -0.0, -1.08, -2.48, -1.41, -1.41, -1.13, -1.7, -2.17, -2.5, -1.83, -0.98, 0.0, -0.0, 1.9, 3.58, 4.34, 4.8, 4.98, 4.98, -8.73, -8.73, -8.73, -8.49, -8.19, -8.19, -8.19, -7.9, -7.9, -8.22, -7.93, -8.53, -8.53, -8.56, -8.87, -8.56, -8.24, -7.95, -7.61, -7.61, -7.24, -7.24, -7.51, -6.84, -6.84, -6.16, -5.92, -5.26, -5.04, -4.6, -3.97, -3.37, -2.75, -3.42, -3.42, -4.08, -3.4, -3.6, -3.4, -2.75, -2.77, -2.29, -2.32, -2.32, -2.14, -2.77, -2.75, -2.26, -1.73, -1.1, -1.14, -0.54, -0.55, -0.57, 0.0, 0.0, 0.0, 0.0, 0.0, 0.0, 0.63, 2.82, 2.82, 2.99, 1.32, 1.32, 1.01, 0.89, 0.94, 0.84, 1.55, 2.69, 1.47, 0.85, 0.85, 1.75, 0.0, -1.98, -1.14, -0.0, -0.0, -1.27, -2.0, -0.0, -1.27, -2.17, -2.63, -4.29, -2.2, -1.27, 0.0, -0.0, 1.4, 3.2, 4.02, 4.34, 4.6, 4.6, -8.38, -8.38, -8.73, -8.49, -8.19, -8.19, -8.19, -7.9, -7.9, -8.22, -8.22, -8.53, -8.53, -8.85, -8.56, -8.56, -8.24, -7.61, -7.61, -7.33, -7.24, -7.24, -6.84, -6.84, -6.84, -6.4, -6.16, -5.69, -5.29, -5.29, -4.63, -3.97, -3.35, -2.92, -2.96, -3.42, -3.64, -3.4, -3.4, -3.42, -2.96, -3.0, -2.32, -2.32, -2.77, -2.96, -2.75, -2.75, -2.26, -2.14, -1.67, -1.7, -1.08, -1.23, -0.57, -0.57, 0.0, 0.0, 0.0, 0.0, 0.0, 1.35, 1.58, 1.01, 1.0, 1.26, 1.95, 0.89, 0.89, 0.0, 0.0, 0.89, 1.33, 1.68, 0.89, 0.0, 0.0, -4.11, -1.3, -0.0, -0.0, -1.8, -2.0, -2.0, -1.8, -4.02, -4.24, -1.27, 0.0, 0.0, 0.0, -0.0, 1.13, 2.53, 3.82, 4.47, 4.22, 4.22, -8.65, -8.65, -8.38, -8.15, -8.49, -8.19, -8.19, -8.19, -7.9, -8.22, -8.22, -8.5, -8.53, -8.85, -8.85, -8.56, -7.95, -7.61, -7.33, -6.97, -6.97, -7.24, -6.84, -6.84, -6.84, -6.4, -6.4, -6.2, -5.52, -5.29, -5.29, -4.63, -3.97, -3.52, -3.37, -3.4, -3.42, -3.42, -3.42, -3.42, -3.42, -3.45, -2.8, -3.6, -3.22, -4.1, -3.84, -3.42, -2.77, -2.8, -2.36, -2.4, -1.73, -1.23, -1.11, -0.57, 0.0, 0.0, 0.0, 0.0, 0.0, 0.0, 0.0, 1.01, 1.0, 1.26, 0.89, 0.0, 0.0, 0.0, 0.0, 0.89, 1.26, 1.28, 0.0, 0.0, -1.67, -3.6, -0.0, -1.05, -2.48, -2.84, -3.16, -1.8, -3.16, -4.47, 0.0, 1.8, 1.27, 1.27, 0.0, 2.21, 2.23, 2.84, 3.6, 4.47, 4.4, 4.0, -8.65, -8.65, -8.38, -8.15, -8.15, -7.86, -8.19, -8.19, -7.9, -7.9, -8.22, -8.5, -8.82, -8.53, -8.53, -8.24, -8.24, -7.61, -7.33, -6.97, -6.97, -6.97, -6.87, -7.14, -7.14, -6.7, -6.7, -6.45, -5.75, -5.52, -5.29, -4.63, -4.63, -3.97, -4.0, -3.56, -3.4, -3.42, -3.42, -3.42, -3.45, -3.45, -3.45, -3.6, -2.82, -4.12, -5.08, -4.47, -3.85, -3.47, -2.82, -2.84, -2.2, -1.76, -1.23, -0.57, -0.57, 0.0, 0.0, 0.0, 0.0, 0.0, 1.58, 1.01, 0.94, 0.0, 0.0, 0.0, 0.0, 0.0, 0.89, 1.32, 0.0, 0.0, 0.0, -0.81, -2.33, 0.0, -0.0, -1.41, -3.48, -2.48, -3.16, -2.2, -4.92, 0.0, 0.0, 0.0, 0.0, 1.13, 2.53, 3.2, 2.48, 2.84, 3.6, 4.47, 5.36, 4.4, -8.65, -8.65, -8.65, -8.15, -8.15, -8.15, -7.86, -8.19, -8.19, -7.9, -7.9, -8.5, -8.82, -8.53, -8.53, -8.24, -7.93, -7.61, -7.26, -7.26, -6.97, -6.87, -6.87, -6.87, -7.14, -6.7, -6.7, -6.7, -5.98, -5.75, -5.52, -5.29, -4.63, -4.42, -4.66, -4.0, -3.35, -3.37, -3.4, -3.42, -4.1, -4.12, -4.39, -3.45, -3.45, -3.84, -5.59, -5.59, -5.35, -4.12, -3.49, -3.22, -2.61, -1.94, -1.76, -1.23, -0.63, 0.0, 0.0, 0.0, 0.0, 0.0, 0.67, 0.0, 0.0, 0.0, 0.0, 0.0, 0.84, 0.89, 1.65, 0.94, 0.0, 0.0, 0.0, 0.0, -6.36, -1.84, -0.0, -1.19, -2.73, -2.48, -2.48, -3.16, -4.47, -3.48, -2.2, 0.0, 0.0, 0.0, 3.58, 3.2, 2.48, 2.53, 3.6, 4.92, 5.36, 5.36, -8.65, -8.65, -8.44, -8.44, -8.15, -8.15, -8.15, -7.86, -8.19, -8.19, -8.19, -8.5, -8.5, -8.22, -7.93, -7.93, -7.61, -7.61, -7.26, -7.26, -6.87, -6.87, -6.87, -6.87, -6.45, -6.45, -6.7, -6.7, -6.45, -5.98, -5.75, -5.52, -5.29, -5.32, -4.66, -4.66, -4.66, -4.0, -3.81, -4.08, -3.84, -4.1, -4.75, -4.47, -3.83, -4.34, -4.0, -5.31, -5.21, -4.71, -3.83, -3.49, -2.84, -2.2, -1.57, -1.08, -0.55, 0.0, 0.0, 0.0, 0.0, 0.0, 0.0, 1.49, 1.58, 1.32, 0.0, 0.0, 0.94, 1.75, 1.75, 0.0, 0.0, 0.0, 0.0, 0.0, -4.84, -2.12, -1.14, -1.19, -1.08, -2.73, -2.73, -3.6, -3.58, -3.16, -3.16, -2.0, 0.0, 0.0, 3.58, 4.02, 3.72, 2.53, 2.84, 4.47, 0.0, 0.0, -8.29, -8.29, -8.08, -8.44, -8.15, -8.15, -8.15, -7.86, -7.86, -8.19, -8.19, -7.9, -8.22, -8.22, -8.22, -8.22, -7.61, -7.61, -7.26, -7.26, -6.87, -6.87, -6.87, -6.87, -6.87, -6.45, -6.45, -6.7, -6.45, -6.45, -5.98, -5.75, -5.52, -5.32, -5.32, -5.08, -4.66, -4.66, -4.69, -4.05, -4.08, -4.47, -4.47, -4.75, -4.69, -3.37, -2.44, -3.2, -4.4, -4.55, -4.11, -3.49, -3.12, -2.2, -1.73, -1.08, -0.61, -0.61, 0.0, 0.0, 0.0, 0.0, 0.7, 1.58, 1.58, 2.99, 3.15, 1.32, 1.73, 1.65, 0.89, 0.0, -1.47, -1.84, 0.0, 0.0, 0.0, -0.0, -1.23, -1.14, -1.08, -1.55, -2.73, -4.4, -4.02, -3.16, -3.16, -1.8, 0.0, 2.53, 4.02, 4.47, 4.02, 3.6, 4.47, 0.0, 0.0, 0.0, -8.08, -8.08, -8.08, -8.08, -8.44, -8.15, -8.15, -8.15, -8.15, -7.86, -8.19, -8.19, -7.9, -7.9, -8.22, -7.91, -7.91, -7.61, -7.26, -7.26, -6.87, -6.87, -6.87, -6.87, -6.87, -6.87, -6.87, -7.14, -6.7, -6.7, -6.45, -6.45, -5.75, -5.52, -5.29, -5.32, -5.32, -5.08, -5.08, -4.69, -4.71, -4.73, -4.47, -5.1, -5.1, -3.8, -2.26, -2.4, -3.43, -4.0, -3.73, -3.49, -2.86, -2.2, -1.73, -1.19, -0.61, -0.61, -0.67, 0.0, 0.0, 0.0, 0.0, 1.49, 2.82, 4.14, 4.37, 2.69, 2.82, 1.84, 0.0, -0.89, -2.54, -2.69, -1.75, 0.0, 1.75, 2.82, 2.48, -0.0, -2.6, -1.19, -3.48, -4.4, -4.47, -3.48, -2.2, -2.2, 0.0, 4.02, 4.02, 4.47, 3.82, 4.02, 0.0, 0.0, 0.0, 0.0, -8.37, -8.37, -8.08, -8.08, -8.44, -8.15, -8.15, -8.15, -8.15, -8.15, -7.86, -8.19, -8.19, -7.9, -7.6, -7.91, -7.91, -7.26, -7.26, -7.26, -6.87, -6.87, -6.87, -6.87, -7.14, -6.87, -6.87, -7.14, -7.14, -7.14, -6.7, -6.45, -6.2, -6.2, -5.95, -5.7, -5.72, -5.32, -5.08, -5.34, -5.09, -5.1, -4.83, -5.1, -5.1, -4.45, -4.03, -2.92, -3.04, -3.78, -3.79, -3.49, -2.61, -1.73, -1.07, -1.16, -0.59, -0.59, -0.59, 0.0, 0.0, 0.0, 0.0, 0.61, 2.99, 2.99, 2.69, 1.84, 2.67, 0.89, 0.0, -1.84, -2.83, -2.69, -0.85, 0.0, 1.75, 3.49, 3.65, 1.96, 0.0, -2.8, -2.98, -4.8, -5.81, -5.81, -4.11, -2.6, 0.0, 4.47, 4.47, 3.6, 3.16, 0.0, 0.0, 0.0, 0.0, 0.0, -8.37, -8.37, -8.08, -8.08, -8.44, -8.44, -8.15, -8.15, -8.15, -8.15, -8.15, -8.19, -8.19, -7.9, -7.6, -7.91, -7.91, -7.26, -7.26, -7.26, -7.56, -7.56, -7.85, -7.85, -7.54, -7.54, -7.54, -7.54, -7.14, -7.14, -7.14, -7.14, -6.87, -6.2, -5.95, -5.95, -5.7, -5.72, -5.72, -5.46, -5.72, -5.09, -5.1, -5.1, -5.38, -5.1, -4.45, -4.03, -3.6, -3.42, -3.47, -2.82, -2.36, -1.7, -1.7, -1.16, -1.16, -0.64, -0.64, 0.0, 0.0, 0.0, 0.0, 0.0, 1.16, 1.4, 1.4, 0.0, 0.0, 0.0, -0.94, -1.84, -0.89, -0.89, 0.0, 0.0, 1.75, 1.68, 2.7, 2.7, 1.26, -9.39, -3.2, -1.84, -4.43, -6.26, -6.71, -4.43, 0.0, 0.0, 2.84, 1.8, 3.16, 4.47, 0.0, 0.0, 0.0, 0.0, -8.37, -8.37, -8.37, -8.08, -8.44, -8.44, -8.15, -8.15, -8.15, -8.15, -8.15, -7.86, -8.19, -7.9, -7.6, -7.91, -7.91, -7.61, -7.26, -7.56, -7.56, -7.56, -7.85, -7.85, -7.85, -7.85, -8.21, -7.85, -7.54, -7.54, -7.54, -7.14, -6.87, -6.87, -6.61, -6.34, -6.34, -6.35, -5.72, -5.72, -6.0, -5.72, -5.72, -5.72, -5.1, -5.1, -5.1, -4.45, -4.45, -4.05, -3.4, -2.96, -2.14, -2.32, -1.67, -1.14, -1.26, -1.26, -0.69, 0.0, 0.0, 0.0, 0.0, 0.0, 0.67, 0.0, 0.0, 0.0, 0.0, 0.0, -0.89, -0.89, 0.0, 0.0, 0.0, 0.0, 0.81, 0.81, 0.89, 1.75, 1.75, 0.0, -4.46, -1.52, -2.8, -6.0, -6.71, -5.36, 0.0, 2.68, 1.4, 2.84, 3.16, 4.0, 4.4, 0.0, 0.0, 0.0, -8.37, -8.37, -8.37, -8.37, -8.44, -8.44, -8.44, -8.15, -8.15, -8.15, -8.15, -8.15, -8.19, -7.9, -7.6, -7.91, -7.91, -7.91, -7.91, -7.56, -7.56, -7.56, -7.85, -7.85, -8.21, -8.21, -8.21, -8.21, -8.21, -7.61, -7.26, -7.26, -7.26, -7.26, -6.61, -6.61, -6.34, -6.08, -6.35, -6.08, -6.35, -6.35, -5.72, -5.72, -5.72, -5.1, -5.1, -5.1, -4.71, -4.05, -4.05, -3.4, -2.96, -2.29, -1.67, -1.67, -1.14, -1.14, -0.62, 0.0, 0.0, 0.0, 0.0, 0.0, 0.67, 0.0, 0.0, 0.0, 0.0, 0.0, 0.0, 0.0, 0.0, 0.0, 0.0, 0.0, 0.0, 0.0, 0.85, 0.94, 0.89, 0.0, -8.05, -2.32, -1.52, -3.0, -4.74, -5.81, 0.0, 0.0, 2.21, 2.84, 3.35, 3.72, 3.48, 3.48, 3.48, 3.48, -8.37, -8.37, -8.37, -8.37, -8.08, -8.44, -8.44, -8.44, -8.44, -8.15, -8.15, -8.15, -7.9, -7.9, -7.6, -7.91, -7.91, -7.91, -7.91, -7.56, -7.56, -7.56, -7.85, -7.85, -8.21, -8.21, -8.53, -8.53, -8.22, -7.91, -7.91, -7.61, -7.26, -6.98, -6.98, -6.98, -6.7, -6.34, -6.35, -6.35, -6.35, -6.35, -6.35, -6.06, -5.72, -5.72, -5.1, -5.1, -4.71, -4.46, -4.05, -3.4, -2.96, -2.77, -2.32, -1.67, -1.14, -1.23, -0.62, 0.0, 0.0, 0.0, 0.0, 0.0, 0.0, 0.0, 0.94, 1.95, 0.89, 0.0, -0.89, -1.75, 0.0, -0.85, -0.85, 0.0, 0.0, 0.0, 0.89, 0.89, 0.89, 0.89, -1.84, -4.22, -1.14, -0.0, -4.11, -5.36, -4.02, 0.0, 0.0, 2.84, 3.6, 2.84, 3.16, 4.4, 4.4, 4.4, -8.37, -8.37, -8.37, -8.37, -8.37, -8.44, -8.44, -8.44, -8.44, -8.15, -8.15, -7.88, -7.9, -7.9, -7.6, -7.6, -7.91, -7.91, -7.91, -7.91, -7.56, -7.56, -7.56, -8.21, -8.21, -8.21, -8.53, -8.53, -8.22, -8.22, -8.22, -7.6, -7.32, -7.32, -6.98, -6.98, -6.7, -6.7, -6.63, -6.35, -6.35, -6.35, -6.35, -6.06, -6.01, -5.72, -5.72, -5.1, -4.83, -4.46, -4.08, -4.08, -3.42, -2.29, -2.32, -1.8, -1.14, -1.23, -0.62, 0.0, 0.0, 0.0, 0.0, 0.0, 0.0, 0.0, 1.01, 1.84, 0.94, 0.0, -0.89, -1.84, -3.32, -1.75, -1.67, -0.85, 0.0, 0.0, 0.89, 0.89, 0.89, 0.89, 0.0, -8.05, -0.0, -0.0, -3.48, -5.36, 0.0, 0.0, 0.0, 0.0, 0.0, 0.0, 3.16, 4.47, 4.47, 4.47, -8.37, -8.37, -8.37, -8.37, -8.37, -8.73, -8.44, -8.44, -8.44, -8.44, -8.15, -8.21, -7.9, -7.9, -7.9, -7.6, -7.6, -7.91, -7.91, -7.91, -7.56, -7.56, -7.56, -7.91, -7.91, -8.22, -8.22, -8.22, -8.22, -8.22, -8.22, -7.6, -7.6, -7.6, -7.6, -6.98, -6.98, -6.7, -6.98, -6.69, -6.35, -6.35, -6.35, -6.35, -6.06, -5.72, -5.72, -5.1, -4.83, -4.73, -4.08, -4.08, -3.42, -2.77, -2.32, -1.8, -1.23, -0.62, -0.62, -0.62, -0.67, -0.67, -0.74, -0.69, -0.64, 0.0, 0.0, 0.0, 0.95, 1.01, 0.0, 0.0, -2.83, -4.34, -2.7, -1.75, -0.85, 0.0, 0.0, 0.0, 0.0, 0.0, 0.0, 0.0, -0.0, -1.6, -2.53, -4.92, 0.0, 0.0, 0.0, 0.0, 0.0, 4.02, 4.02, 4.47, 4.47, 4.47, -8.65, -8.65, -8.37, -8.37, -8.37, -8.37, -8.44, -8.44, -8.44, -8.44, -7.88, -7.88, -7.9, -7.9, -7.9, -7.9, -7.9, -7.6, -7.91, -7.91, -7.56, -7.56, -8.22, -8.22, -8.22, -8.52, -8.52, -8.52, -8.22, -8.22, -8.22, -7.6, -7.6, -7.6, -7.6, -7.6, -6.98, -6.7, -6.7, -6.69, -6.35, -6.35, -6.35, -6.35, -6.06, -6.01, -5.72, -5.1, -5.1, -4.73, -4.47, -4.08, -3.42, -2.77, -2.29, -1.76, -1.23, -1.32, -0.67, -0.67, -0.67, -0.67, -0.67, -0.74, -0.64, -0.54, -0.89, 0.0, 0.0, 1.01, 1.01, 0.0, 0.0, -1.84, -4.34, -3.45, -1.84, 0.0, 0.0, 0.0, 0.0, 0.0, 0.0, -0.0, -0.0, -1.6, -2.21, -3.13, 0.0, 3.58, 4.02, 4.47, 4.92, 4.47, 4.24, 4.34, 4.34, 4.34, -8.65, -8.65, -8.37, -8.37, -8.37, -8.37, -8.37, -8.44, -8.44, -8.15, -8.15, -7.88, -8.21, -7.9, -7.9, -7.9, -7.9, -7.9, -7.9, -7.56, -7.56, -7.88, -8.22, -8.22, -8.22, -8.52, -8.52, -8.52, -8.22, -8.22, -7.9, -7.6, -7.6, -7.6, -7.9, -7.6, -7.27, -7.27, -6.7, -6.98, -6.35, -6.64, -6.35, -6.35, -6.06, -6.01, -5.72, -5.72, -5.1, -4.73, -4.73, -4.08, -3.42, -2.77, -2.29, -1.76, -1.2, -1.2, -1.2, -1.2, -1.2, -1.2, -1.32, -1.32, -1.36, -1.16, -1.07, 0.0, 0.0, 0.0, 0.0, 0.0, 0.89, 1.73, 1.96, -0.89, 0.0, 0.0, 0.0, -0.85, -0.94, 0.0, 0.0, -0.0, -0.88, -2.53, -1.9, -1.9, 0.0, 0.0, 2.24, 3.58, 4.47, 4.47, 3.82, 3.82, 3.82, 3.82, -8.65, -8.65, -8.65, -8.37, -8.37, -8.37, -8.37, -8.44, -8.44, -8.44, -8.15, -8.15, -7.88, -7.88, -7.9, -7.9, -7.9, -7.9, -7.58, -7.58, -7.88, -7.88, -8.22, -8.22, -8.22, -8.52, -8.52, -8.52, -8.19, -7.9, -7.6, -7.6, -7.6, -7.9, -7.59, -7.59, -7.3, -6.98, -6.98, -6.7, -6.63, -6.35, -6.35, -6.35, -6.06, -5.72, -5.72, -5.72, -5.1, -5.1, -4.46, -4.47, -3.42, -2.96, -2.44, -1.88, -1.76, -1.2, -1.28, -1.28, -1.2, -1.2, -1.76, -1.93, -2.12, -1.8, -1.67, -1.16, -0.89, -0.94, 0.0, 0.0, 0.89, 1.84, 2.69, 1.75, 0.94, 0.0, 0.0, -0.89, -0.89, -0.84, -3.0, -1.23, -1.14, -1.41, -1.6, -0.0, -0.0, 0.0, 0.0, 3.13, 4.02, 4.02, 3.6, 3.2, 3.2, 3.2, -8.65, -8.65, -8.65, -8.37, -8.37, -8.37, -8.37, -8.08, -8.44, -8.44, -8.15, -7.88, -7.88, -7.88, -7.88, -7.9, -7.9, -7.58, -7.58, -7.58, -7.58, -7.58, -7.9, -7.9, -7.9, -8.19, -8.19, -8.19, -8.19, -7.9, -7.6, -7.6, -7.6, -7.59, -7.59, -7.59, -7.59, -6.98, -6.98, -6.98, -6.98, -6.35, -6.35, -6.35, -6.35, -6.06, -5.72, -5.72, -5.72, -5.1, -5.1, -4.46, -4.08, -3.64, -2.96, -2.44, -2.29, -1.88, -1.88, -1.88, -1.88, -1.63, -1.76, -1.88, -2.66, -2.32, -2.16, -2.36, -1.67, -1.84, -0.89, 0.0, 0.0, 0.94, 1.84, 0.94, 0.0, 0.0, 0.0, 0.0, 0.0, 0.0, 0.0, -2.6, -1.03, -0.0, -0.0, -0.0, -0.0, -0.0, 0.0, 0.0, 3.58, 4.02, 2.84, 3.6, 3.6, 3.6, -8.09, -8.09, -8.45, -8.37, -8.37, -8.37, -8.15, -7.85, -8.08, -8.44, -8.19, -8.19, -7.88, -7.88, -7.88, -7.88, -7.9, -7.58, -7.58, -7.58, -7.58, -7.58, -7.9, -7.9, -7.9, -8.19, -8.19, -8.19, -8.19, -8.19, -7.6, -7.6, -7.3, -7.3, -7.59, -7.59, -7.59, -7.59, -6.98, -6.98, -6.98, -6.98, -6.35, -6.35, -6.35, -6.35, -6.35, -5.72, -5.72, -5.72, -5.36, -4.46, -4.05, -3.64, -3.14, -2.96, -2.26, -2.26, -2.26, -2.26, -1.73, -2.26, -2.26, -2.44, -2.66, -2.49, -2.32, -2.82, -2.82, -2.67, -1.95, -1.0, 0.0, 0.0, 0.89, 0.0, 0.0, -0.89, -0.89, 0.0, 0.94, 0.94, 0.94, 0.0, -0.0, -0.96, -0.98, -0.0, -0.0, -0.0, 0.0, 0.0, 0.0, 2.84, 2.84, 3.6, 3.6, 3.6, -8.09, -8.09, -8.09, -8.09, -8.15, -8.15, -8.15, -7.85, -7.85, -7.85, -8.19, -8.19, -8.19, -7.88, -7.88, -7.88, -7.59, -7.58, -7.58, -7.58, -7.58, -7.58, -7.9, -7.9, -8.19, -8.19, -8.19, -8.19, -8.19, -8.19, -7.6, -7.6, -7.3, -7.3, -7.59, -7.59, -7.59, -7.59, -6.98, -6.98, -6.98, -6.98, -6.98, -6.98, -6.69, -6.35, -6.35, -6.35, -5.72, -5.72, -5.09, -4.71, -4.05, -3.6, -3.4, -2.92, -2.92, -2.92, -2.26, -2.26, -2.26, -2.26, -2.26, -2.6, -2.82, -3.2, -2.8, -3.04, -3.47, -3.6, -2.83, -1.84, 0.0, 0.0, 0.0, 0.0, 0.0, 0.0, -0.84, 0.0, 0.89, 0.89, 0.85, 1.14, -0.0, -1.03, -1.19, -1.13, -0.99, -1.2, -0.0, 0.0, 3.13, 2.84, 2.84, 2.84, 2.84, 2.84, -8.09, -8.09, -8.09, -8.09, -7.8, -7.8, -8.15, -7.85, -7.85, -7.85, -7.85, -7.85, -7.85, -7.55, -7.88, -7.88, -7.59, -7.59, -7.28, -7.28, -7.28, -7.28, -7.59, -7.59, -8.19, -8.19, -8.19, -8.19, -8.19, -8.19, -7.6, -7.6, -7.3, -7.3, -7.59, -7.59, -7.59, -7.59, -7.3, -6.98, -6.98, -6.98, -6.98, -6.98, -6.98, -6.69, -6.35, -6.08, -6.35, -5.72, -5.72, -4.45, -4.28, -4.05, -3.6, -3.37, -2.89, -2.73, -2.23, -2.4, -2.4, -2.92, -2.92, -2.92, -3.14, -3.2, -3.0, -3.45, -3.85, -3.45, -2.29, -0.94, 0.0, 0.0, 0.89, 0.94, 0.89, 0.89, 0.84, 0.89, 0.89, 0.89, 0.0, 0.89, -0.0, -1.1, -2.16, -1.8, -1.98, -1.2, -1.58, -0.0, 1.9, 3.2, 2.84, 2.84, 2.84, 2.84, -8.09, -8.09, -8.09, -8.09, -7.8, -7.8, -7.8, -7.85, -7.85, -7.85, -7.85, -7.85, -7.85, -7.85, -7.55, -7.59, -7.59, -7.59, -7.59, -7.28, -7.28, -7.28, -7.59, -7.59, -8.19, -8.19, -8.19, -8.19, -8.19, -7.6, -7.6, -7.6, -7.3, -7.3, -7.59, -7.59, -7.59, -7.59, -7.3, -6.98, -6.98, -6.98, -6.98, -6.98, -6.98, -6.98, -6.98, -6.35, -6.35, -5.72, -5.72, -4.69, -4.45, -4.03, -3.37, -3.37, -2.89, -2.89, -2.89, -2.73, -2.73, -2.73, -2.92, -3.09, -3.33, -3.14, -3.42, -3.42, -4.1, -3.85, -3.42, -1.75, 0.0, 0.0, 1.01, 0.94, 0.84, 0.89, 0.84, 0.0, 0.0, 0.0, 0.0, 0.0, 0.0, -1.32, -2.16, -3.22, -2.68, -1.98, -2.21, -0.0, -0.0, -0.0, 1.4, 1.4, 1.4, 1.4, -8.09, -8.09, -8.09, -8.09, -7.8, -7.8, -7.8, -7.8, -7.51, -7.51, -7.85, -7.85, -7.85, -7.85, -7.85, -7.27, -7.59, -7.59, -7.59, -7.28, -7.28, -7.59, -7.59, -7.59, -7.86, -8.19, -8.19, -8.19, -8.19, -7.6, -7.6, -7.6, -7.6, -7.3, -7.3, -7.59, -7.59, -7.59, -7.3, -6.98, -6.98, -6.98, -6.98, -6.98, -6.98, -6.7, -6.7, -6.63, -6.35, -5.72, -5.34, -5.09, -4.69, -4.03, -4.03, -3.56, -3.37, -2.89, -2.89, -2.89, -2.89, -2.89, -3.09, -3.09, -3.33, -3.64, -3.42, -3.84, -4.1, -3.85, -3.85, -2.77, -1.2, 0.0, 0.0, 0.0, 0.0, 0.0, 0.0, 0.0, 0.0, 0.0, 0.0, 0.0, 0.0, -1.52, -3.22, -3.49, -3.22, -3.48, -2.48, -1.27, -1.13, -0.0, -0.0, 1.13, 1.13, 1.13, -8.09, -8.09, -8.09, -8.09, -7.8, -7.8, -7.8, -7.8, -7.51, -7.51, -7.85, -7.85, -7.85, -7.85, -7.85, -7.27, -7.59, -7.59, -7.59, -7.28, -7.28, -7.59, -7.59, -7.59, -7.86, -8.19, -8.19, -8.19, -8.19, -7.6, -7.6, -7.6, -7.6, -7.3, -7.3, -7.59, -7.59, -7.59, -7.3, -6.98, -6.98, -6.98, -6.98, -6.98, -6.98, -6.7, -6.7, -6.63, -6.35, -5.72, -5.34, -5.09, -4.69, -4.03, -4.03, -3.56, -3.37, -2.89, -2.89, -2.89, -2.89, -2.89, -3.09, -3.09, -3.33, -3.64, -3.42, -3.84, -4.1, -3.85, -3.85, -2.77, -1.2, 0.0, 0.0, 0.0, 0.0, 0.0, 0.0, 0.0, 0.0, 0.0, 0.0, 0.0, 0.0, -0.0, -1.98, -2.99, -3.49, -2.4, -2.2, -1.19, -0.0, -0.0, 1.08, 2.0, 2.0, 2.0]}]